LiveATC.Net - Listen to live air traffic control over the Internet!

Find LiveATC Audio Streams


Airport/ARTCC Code

Frequency Search
(e.g., 124.400, 128.75)
Site-wide search
 


Browse LiveATC Feeds
Top 50 LiveATC Feeds
Bad Weather Areas

LiveATC FAQ
Offer a LiveATC Feed
Contact LiveATC.net
Press Inquiries

LiveATC on iPhone
LiveATC on Android

Windows Phone
Windows 8/10

LiveATC Mobile
(Mobile browser)

ATC Audio Archives
Interesting Recordings

LiveATC Forums

Home Page
About LiveATC.net
Make a Donation
Terms of Use
Privacy Policy

Canadian Air Freqs

AIRMETs/SIGMETs

FAA Airport Status
Nat'l Airspace Status
Arrival Demand Charts


Server Software By:
Icecast.org
Liquidsoap

Select an area of interest:
U.S. Feeds: Class B Airports | Class C Airports | Class D/Other Airports | ARTCC (Centers)
International Feeds: Canada | Europe | Oceania | Asia | South America | North/Central America | Africa
Misc Feeds: HF Feeds
Search by ICAO/IATA airport code:   (e.g., kbos, kjfk, lax, eham, etc.)


Currently Available Live Feeds: 2272
Status Updated: Thu Dec 13 2018 21:35:02 UTC


NOTICE

Unauthorized use prohibited. See LiveATC.net Terms of Service

Europe Airport Feeds

 

EFKK Tower (Archives)
Kronoby, Finland

Feed Status: UP
Listen in your browser - HTML5 player(in browser, HTML5)
Listen right in your browser(in browser, requires Flash)
Click here to listen with your own player(launches your MP3 player)

EFKK 132120Z AUTO 15008KT 9999 -SN FEW006 OVC017 M03/M04 Q1034

EFKK Flight Activity (Flightaware)

Listeners: 1 out of 1452 total

Kronoby Tower: 120.100

EFKU Tower/Approach (Archives)
Siilinjarvi, Finland

Feed Status: UP
Listen in your browser - HTML5 player(in browser, HTML5)
Listen right in your browser(in browser, requires Flash)
Click here to listen with your own player(launches your MP3 player)

EFKU 132120Z AUTO 24004KT 200V290 9999 OVC014 M04/M07 Q1034

EFKU Flight Activity (Flightaware)

Listeners: 1 out of 1452 total

Kuopio Approach: 130.600
Kuopio Tower: 120.150

Dutch Mil Radar (Archives)
Amsterdam, Netherlands

Feed Status: UP
Listen in your browser - HTML5 player(in browser, HTML5)
Listen right in your browser(in browser, requires Flash)
Click here to listen with your own player(launches your MP3 player)

EHLE Flight Activity (Flightaware)

Listeners: 2 out of 1452 total

Dutch Mil Flight Info: 264.325
Dutch Mil Radar: 128.355
Dutch Mil Radar: 132.350

EHAA Radar ARTIP (Archives)
Amsterdam, Netherlands

Feed Status: UP
Listen in your browser - HTML5 player(in browser, HTML5)
Listen right in your browser(in browser, requires Flash)
Click here to listen with your own player(launches your MP3 player)

EHAM 132125Z 07010KT 030V090 9999 BKN047 02/M00 Q1023 NOSIG

EHAM Flight Activity (Flightaware)

Listeners: 0 out of 1452 total

EHAA Radar Sector 1 ARTIP: 120.550

EHAA Radar East Inbound (Archives)
Amsterdam, Netherlands

Feed Status: UP
Listen in your browser - HTML5 player(in browser, HTML5)
Listen right in your browser(in browser, requires Flash)
Click here to listen with your own player(launches your MP3 player)

EHAM 132125Z 07010KT 030V090 9999 BKN047 02/M00 Q1023 NOSIG

EHAM Flight Activity (Flightaware)

Listeners: 0 out of 1452 total

EHAA Radar Sector 2 East Inbound: 128.575

EHAA Radar East Outbound (Archives)
Amsterdam, Netherlands

Feed Status: UP
Listen in your browser - HTML5 player(in browser, HTML5)
Listen right in your browser(in browser, requires Flash)
Click here to listen with your own player(launches your MP3 player)

EHAM 132125Z 07010KT 030V090 9999 BKN047 02/M00 Q1023 NOSIG

EHAM Flight Activity (Flightaware)

Listeners: 2 out of 1452 total

EHAA Radar Sector 2 East Outbound: 124.875

EHAA Radar North (Archives)
Amsterdam, Netherlands

Feed Status: UP
Listen in your browser - HTML5 player(in browser, HTML5)
Listen right in your browser(in browser, requires Flash)
Click here to listen with your own player(launches your MP3 player)

EHAM 132125Z 07010KT 030V090 9999 BKN047 02/M00 Q1023 NOSIG

EHAM Flight Activity (Flightaware)

Listeners: 1 out of 1452 total

EHAA Radar Sector 1 North: 134.375

EHAA Radar Northwest (Archives)
Amsterdam, Netherlands

Feed Status: UP
Listen in your browser - HTML5 player(in browser, HTML5)
Listen right in your browser(in browser, requires Flash)
Click here to listen with your own player(launches your MP3 player)

EHAM 132125Z 07010KT 030V090 9999 BKN047 02/M00 Q1023 NOSIG

EHAM Flight Activity (Flightaware)

Listeners: 0 out of 1452 total

EHAA Radar Sector 5 Northwest: 123.7000

EHAA Radar RIVER (Archives)
Amsterdam, Netherlands

Feed Status: UP
Listen in your browser - HTML5 player(in browser, HTML5)
Listen right in your browser(in browser, requires Flash)
Click here to listen with your own player(launches your MP3 player)

EHAM 132125Z 07010KT 030V090 9999 BKN047 02/M00 Q1023 NOSIG

EHAM Flight Activity (Flightaware)

Listeners: 0 out of 1452 total

EHAA Radar Sector 3 RIVER: 130.950

EHAA Radar South (Archives)
Amsterdam, Netherlands

Feed Status: UP
Listen in your browser - HTML5 player(in browser, HTML5)
Listen right in your browser(in browser, requires Flash)
Click here to listen with your own player(launches your MP3 player)

EHAM 132125Z 07010KT 030V090 9999 BKN047 02/M00 Q1023 NOSIG

EHAM Flight Activity (Flightaware)

Listeners: 0 out of 1452 total

EHAA Radar Sector 3 South: 123.850

EHAA Radar South (Backup) (Archives)
Amsterdam, Netherlands

Feed Status: UP
Listen in your browser - HTML5 player(in browser, HTML5)
Listen right in your browser(in browser, requires Flash)
Click here to listen with your own player(launches your MP3 player)

EHAM 132125Z 07010KT 030V090 9999 BKN047 02/M00 Q1023 NOSIG

EHAM Flight Activity (Flightaware)

Listeners: 0 out of 1452 total

EHAA Radar Sector 3 South Backup : 127.775

EHAA Radar Southwest (Archives)
Amsterdam, Netherlands

Feed Status: UP
Listen in your browser - HTML5 player(in browser, HTML5)
Listen right in your browser(in browser, requires Flash)
Click here to listen with your own player(launches your MP3 player)

EHAM 132125Z 07010KT 030V090 9999 BKN047 02/M00 Q1023 NOSIG

EHAM Flight Activity (Flightaware)

Listeners: 1 out of 1452 total

EHAA Radar Sector 4 Southwest: 125.750

EHAA Radar SUGOL (Archives)
Amsterdam, Netherlands

Feed Status: UP
Listen in your browser - HTML5 player(in browser, HTML5)
Listen right in your browser(in browser, requires Flash)
Click here to listen with your own player(launches your MP3 player)

EHAM 132125Z 07010KT 030V090 9999 BKN047 02/M00 Q1023 NOSIG

EHAM Flight Activity (Flightaware)

Listeners: 0 out of 1452 total

EHAA Radar Sector 5 SUGOL: 118.800

EHAM Airside Ops Mgr (AOM) (Archives)
Amsterdam, Netherlands

Feed Status: UP
Listen in your browser - HTML5 player(in browser, HTML5)
Listen right in your browser(in browser, requires Flash)
Click here to listen with your own player(launches your MP3 player)

EHAM 132125Z 07010KT 030V090 9999 BKN047 02/M00 Q1023 NOSIG

EHAM Flight Activity (Flightaware)

Listeners: 0 out of 1452 total

Schiphol Airside Operations Manager: 130.475

EHAM App/Dep Backup (Archives)
Amsterdam, Netherlands

Feed Status: UP
Listen in your browser - HTML5 player(in browser, HTML5)
Listen right in your browser(in browser, requires Flash)
Click here to listen with your own player(launches your MP3 player)

EHAM 132125Z 07010KT 030V090 9999 BKN047 02/M00 Q1023 NOSIG

EHAM Flight Activity (Flightaware)

Listeners: 0 out of 1452 total

Schiphol App/Dep Backup: 118.075

EHAM App/Dep TMA East (Archives)
Amsterdam, Netherlands

Feed Status: UP
Listen in your browser - HTML5 player(in browser, HTML5)
Listen right in your browser(in browser, requires Flash)
Click here to listen with your own player(launches your MP3 player)

EHAM 132125Z 07010KT 030V090 9999 BKN047 02/M00 Q1023 NOSIG

EHAM Flight Activity (Flightaware)

Listeners: 0 out of 1452 total

Amsterdam Approach/Departure TMA East: 119.055

EHAM App/Dep TMA West (Archives)
Amsterdam, Netherlands

Feed Status: UP
Listen in your browser - HTML5 player(in browser, HTML5)
Listen right in your browser(in browser, requires Flash)
Click here to listen with your own player(launches your MP3 player)

EHAM 132125Z 07010KT 030V090 9999 BKN047 02/M00 Q1023 NOSIG

EHAM Flight Activity (Flightaware)

Listeners: 1 out of 1452 total

Amsterdam Approach/Departure TMA West: 121.200

EHAM Apron (North) (Archives)
Amsterdam, Netherlands

Feed Status: UP
Listen in your browser - HTML5 player(in browser, HTML5)
Listen right in your browser(in browser, requires Flash)
Click here to listen with your own player(launches your MP3 player)

EHAM 132125Z 07010KT 030V090 9999 BKN047 02/M00 Q1023 NOSIG

EHAM Flight Activity (Flightaware)

Listeners: 0 out of 1452 total

Schiphol Apron (North): 121.880

EHAM Apron (South) (Archives)
Amsterdam, Netherlands

Feed Status: UP
Listen in your browser - HTML5 player(in browser, HTML5)
Listen right in your browser(in browser, requires Flash)
Click here to listen with your own player(launches your MP3 player)

EHAM 132125Z 07010KT 030V090 9999 BKN047 02/M00 Q1023 NOSIG

EHAM Flight Activity (Flightaware)

Listeners: 1 out of 1452 total

Schiphol Apron (South): 121.780

EHAM Arrival (Primary) (Archives)
Amsterdam, Netherlands

Feed Status: UP
Listen in your browser - HTML5 player(in browser, HTML5)
Listen right in your browser(in browser, requires Flash)
Click here to listen with your own player(launches your MP3 player)

EHAM 132125Z 07010KT 030V090 9999 BKN047 02/M00 Q1023 NOSIG

EHAM Flight Activity (Flightaware)

Listeners: 2 out of 1452 total

Amsterdam Arrival : 118.400

EHAM Arrival (Secondary) (Archives)
Amsterdam, Netherlands

Feed Status: UP
Listen in your browser - HTML5 player(in browser, HTML5)
Listen right in your browser(in browser, requires Flash)
Click here to listen with your own player(launches your MP3 player)

EHAM 132125Z 07010KT 030V090 9999 BKN047 02/M00 Q1023 NOSIG

EHAM Flight Activity (Flightaware)

Listeners: 1 out of 1452 total

Amsterdam Arrival (Secondary): 131.150

EHAM Arrival (Secondary/Backup) (Archives)
Amsterdam, Netherlands

Feed Status: UP
Listen in your browser - HTML5 player(in browser, HTML5)
Listen right in your browser(in browser, requires Flash)
Click here to listen with your own player(launches your MP3 player)

EHAM 132125Z 07010KT 030V090 9999 BKN047 02/M00 Q1023 NOSIG

EHAM Flight Activity (Flightaware)

Listeners: 0 out of 1452 total

Amsterdam Arrival (Secondary Backup): 131.275

EHAM Arrival Backup/Discrete (Archives)
Amsterdam, Netherlands

Feed Status: UP
Listen in your browser - HTML5 player(in browser, HTML5)
Listen right in your browser(in browser, requires Flash)
Click here to listen with your own player(launches your MP3 player)

EHAM 132125Z 07010KT 030V090 9999 BKN047 02/M00 Q1023 NOSIG

EHAM Flight Activity (Flightaware)

Listeners: 0 out of 1452 total

Schiphol Arrival Backup: 126.675

EHAM Clearance Delivery (Archives)
Amsterdam, Netherlands

Feed Status: UP
Listen in your browser - HTML5 player(in browser, HTML5)
Listen right in your browser(in browser, requires Flash)
Click here to listen with your own player(launches your MP3 player)

EHAM 132125Z 07010KT 030V090 9999 BKN047 02/M00 Q1023 NOSIG

EHAM Flight Activity (Flightaware)

Listeners: 1 out of 1452 total

Schiphol Clearance Delivery: 121.980

EHAM Ground (Backup) (Archives)
Amsterdam, Netherlands

Feed Status: UP
Listen in your browser - HTML5 player(in browser, HTML5)
Listen right in your browser(in browser, requires Flash)
Click here to listen with your own player(launches your MP3 player)

EHAM 132125Z 07010KT 030V090 9999 BKN047 02/M00 Q1023 NOSIG

EHAM Flight Activity (Flightaware)

Listeners: 0 out of 1452 total

Schiphol Ground (Backup): 122.425

EHAM Ground (North) (Archives)
Amsterdam, Netherlands

Feed Status: UP
Listen in your browser - HTML5 player(in browser, HTML5)
Listen right in your browser(in browser, requires Flash)
Click here to listen with your own player(launches your MP3 player)

EHAM 132125Z 07010KT 030V090 9999 BKN047 02/M00 Q1023 NOSIG

EHAM Flight Activity (Flightaware)

Listeners: 1 out of 1452 total

Schiphol Ground (North): 121.805

EHAM Ground (South) (Archives)
Amsterdam, Netherlands

Feed Status: UP
Listen in your browser - HTML5 player(in browser, HTML5)
Listen right in your browser(in browser, requires Flash)
Click here to listen with your own player(launches your MP3 player)

EHAM 132125Z 07010KT 030V090 9999 BKN047 02/M00 Q1023 NOSIG

EHAM Flight Activity (Flightaware)

Listeners: 0 out of 1452 total

Schiphol Ground (South): 121.705

EHAM Ground (West) (Archives)
Amsterdam, Netherlands

Feed Status: UP
Listen in your browser - HTML5 player(in browser, HTML5)
Listen right in your browser(in browser, requires Flash)
Click here to listen with your own player(launches your MP3 player)

EHAM 132125Z 07010KT 030V090 9999 BKN047 02/M00 Q1023 NOSIG

EHAM Flight Activity (Flightaware)

Listeners: 0 out of 1452 total

Schiphol Ground (West): 121.560

EHAM Info North Sea (North) (Archives)
Amsterdam, Netherlands

Feed Status: UP
Listen in your browser - HTML5 player(in browser, HTML5)
Listen right in your browser(in browser, requires Flash)
Click here to listen with your own player(launches your MP3 player)

EHAM 132125Z 07010KT 030V090 9999 BKN047 02/M00 Q1023 NOSIG

EHAM Flight Activity (Flightaware)

Listeners: 0 out of 1452 total

Amsterdam Info North Sea (North): 119.175

EHAM Info North Sea (Over Land) (Archives)
Amsterdam, Netherlands

Feed Status: UP
Listen in your browser - HTML5 player(in browser, HTML5)
Listen right in your browser(in browser, requires Flash)
Click here to listen with your own player(launches your MP3 player)

EHAM 132125Z 07010KT 030V090 9999 BKN047 02/M00 Q1023 NOSIG

EHAM Flight Activity (Flightaware)

Listeners: 0 out of 1452 total

Amsterdam Info North Sea (Over Land): 124.300

EHAM Info North Sea (South) (Archives)
Amsterdam, Netherlands

Feed Status: UP
Listen in your browser - HTML5 player(in browser, HTML5)
Listen right in your browser(in browser, requires Flash)
Click here to listen with your own player(launches your MP3 player)

EHAM 132125Z 07010KT 030V090 9999 BKN047 02/M00 Q1023 NOSIG

EHAM Flight Activity (Flightaware)

Listeners: 0 out of 1452 total

Amsterdam Info North Sea (South): 136.650

EHAM Ops (Archives)
Amsterdam, Netherlands

Feed Status: UP
Listen in your browser - HTML5 player(in browser, HTML5)
Listen right in your browser(in browser, requires Flash)
Click here to listen with your own player(launches your MP3 player)

EHAM 132125Z 07010KT 030V090 9999 BKN047 02/M00 Q1023 NOSIG

EHAM Flight Activity (Flightaware)

Listeners: 0 out of 1452 total

Schiphol Ops 1: 465.770
Schiphol Ops 2: 466.470
Schiphol Runway Ops: 447.175

EHAM Schiphol Outbound Planner (Archives)
Amsterdam, Netherlands

Feed Status: UP
Listen in your browser - HTML5 player(in browser, HTML5)
Listen right in your browser(in browser, requires Flash)
Click here to listen with your own player(launches your MP3 player)

EHAM 132125Z 07010KT 030V090 9999 BKN047 02/M00 Q1023 NOSIG

EHAM Flight Activity (Flightaware)

Listeners: 0 out of 1452 total

Schiphol Outbound Planner: 121.655

EHAM Tow Traffic (Archives)
Amsterdam, Netherlands

Feed Status: UP
Listen in your browser - HTML5 player(in browser, HTML5)
Listen right in your browser(in browser, requires Flash)
Click here to listen with your own player(launches your MP3 player)

EHAM 132125Z 07010KT 030V090 9999 BKN047 02/M00 Q1023 NOSIG

EHAM Flight Activity (Flightaware)

Listeners: 1 out of 1452 total

Schiphol Tow Traffic: 134.875

EHAM Tower (06/24) (Archives)
Amsterdam, Netherlands

Feed Status: UP
Listen in your browser - HTML5 player(in browser, HTML5)
Listen right in your browser(in browser, requires Flash)
Click here to listen with your own player(launches your MP3 player)

EHAM 132125Z 07010KT 030V090 9999 BKN047 02/M00 Q1023 NOSIG

EHAM Flight Activity (Flightaware)

Listeners: 0 out of 1452 total

Schiphol Tower Main 06/24: 118.950

EHAM Tower (18C/36C-27/09) (Archives)
Amsterdam, Netherlands

Feed Status: UP
Listen in your browser - HTML5 player(in browser, HTML5)
Listen right in your browser(in browser, requires Flash)
Click here to listen with your own player(launches your MP3 player)

EHAM 132125Z 07010KT 030V090 9999 BKN047 02/M00 Q1023 NOSIG

EHAM Flight Activity (Flightaware)

Listeners: 1 out of 1452 total

Schiphol Tower Main 18C/36C - 27/09: 118.100

EHAM Tower (18L/36R-22/04) (Archives)
Amsterdam, Netherlands

Feed Status: UP
Listen in your browser - HTML5 player(in browser, HTML5)
Listen right in your browser(in browser, requires Flash)
Click here to listen with your own player(launches your MP3 player)

EHAM 132125Z 07010KT 030V090 9999 BKN047 02/M00 Q1023 NOSIG

EHAM Flight Activity (Flightaware)

Listeners: 2 out of 1452 total

Schiphol Tower Main 18L/36R - 22/04: 119.225

EHAM Tower Backup (Archives)
Amsterdam, Netherlands

Feed Status: UP
Listen in your browser - HTML5 player(in browser, HTML5)
Listen right in your browser(in browser, requires Flash)
Click here to listen with your own player(launches your MP3 player)

EHAM 132125Z 07010KT 030V090 9999 BKN047 02/M00 Q1023 NOSIG

EHAM Flight Activity (Flightaware)

Listeners: 0 out of 1452 total

Schiphol Tower Backup: 119.905

EHAM Tower West (18R/36L) (Archives)
Amsterdam, Netherlands

Feed Status: UP
Listen in your browser - HTML5 player(in browser, HTML5)
Listen right in your browser(in browser, requires Flash)
Click here to listen with your own player(launches your MP3 player)

EHAM 132125Z 07010KT 030V090 9999 BKN047 02/M00 Q1023 NOSIG

EHAM Flight Activity (Flightaware)

Listeners: 1 out of 1452 total

Schiphol Tower West 18R/36L: 118.280

EHBK Gnd/Twr/App (Archives)
Beek, Netherlands

Feed Status: UP
Listen in your browser - HTML5 player(in browser, HTML5)
Listen right in your browser(in browser, requires Flash)
Click here to listen with your own player(launches your MP3 player)

EHBK 132125Z AUTO 06007KT 9999 SCT034 M01/M04 Q1020 NOSIG

EHBK Flight Activity (Flightaware)

Listeners: 0 out of 1452 total

Beek Approach: 120.200
Beek Approach: 123.975
Beek Ground: 121.825
Beek Tower: 119.475
Beek Tower: 119.700

MUAC/Eurocontrol Delta High (Archives)
Beek, Netherlands

Feed Status: UP
Listen in your browser - HTML5 player(in browser, HTML5)
Listen right in your browser(in browser, requires Flash)
Click here to listen with your own player(launches your MP3 player)

EHBK 132125Z AUTO 06007KT 9999 SCT034 M01/M04 Q1020 NOSIG

EHBK Flight Activity (Flightaware)

Listeners: 0 out of 1452 total

MUAC Delta High Sector: 132.085

MUAC/Eurocontrol Koksy (Archives)
Beek, Netherlands

Feed Status: UP
Listen in your browser - HTML5 player(in browser, HTML5)
Listen right in your browser(in browser, requires Flash)
Click here to listen with your own player(launches your MP3 player)

EHBK 132125Z AUTO 06007KT 9999 SCT034 M01/M04 Q1020 NOSIG

EHBK Flight Activity (Flightaware)

Listeners: 1 out of 1452 total

MUAC Koksy Sector: 132.205

MUAC/Eurocontrol Koksy High (Archives)
Beek, Netherlands

Feed Status: UP
Listen in your browser - HTML5 player(in browser, HTML5)
Listen right in your browser(in browser, requires Flash)
Click here to listen with your own player(launches your MP3 player)

EHBK 132125Z AUTO 06007KT 9999 SCT034 M01/M04 Q1020 NOSIG

EHBK Flight Activity (Flightaware)

Listeners: 0 out of 1452 total

MUAC Koksy High Sector: 132.755

MUAC/Eurocontrol Lux High (Archives)
Beek, Netherlands

Feed Status: UP
Listen in your browser - HTML5 player(in browser, HTML5)
Listen right in your browser(in browser, requires Flash)
Click here to listen with your own player(launches your MP3 player)

EHBK 132125Z AUTO 06007KT 9999 SCT034 M01/M04 Q1020 NOSIG

EHBK Flight Activity (Flightaware)

Listeners: 1 out of 1452 total

MUAC Lux High Sector: 132.315

MUAC/Eurocontrol Lux Low (Archives)
Beek, Netherlands

Feed Status: UP
Listen in your browser - HTML5 player(in browser, HTML5)
Listen right in your browser(in browser, requires Flash)
Click here to listen with your own player(launches your MP3 player)

EHBK 132125Z AUTO 06007KT 9999 SCT034 M01/M04 Q1020 NOSIG

EHBK Flight Activity (Flightaware)

Listeners: 0 out of 1452 total

MUAC Lux Low Sector: 133.355

MUAC/Eurocontrol Olno Low (Archives)
Beek, Netherlands

Feed Status: UP
Listen in your browser - HTML5 player(in browser, HTML5)
Listen right in your browser(in browser, requires Flash)
Click here to listen with your own player(launches your MP3 player)

EHBK 132125Z AUTO 06007KT 9999 SCT034 M01/M04 Q1020 NOSIG

EHBK Flight Activity (Flightaware)

Listeners: 0 out of 1452 total

MUAC Olno Low Sector: 132.855

MUAC/Eurocontrol Ruhr (Archives)
Beek, Netherlands

Feed Status: UP
Listen in your browser - HTML5 player(in browser, HTML5)
Listen right in your browser(in browser, requires Flash)
Click here to listen with your own player(launches your MP3 player)

EHBK 132125Z AUTO 06007KT 9999 SCT034 M01/M04 Q1020 NOSIG

EHBK Flight Activity (Flightaware)

Listeners: 1 out of 1452 total

MUAC Ruhr Sector: 132.515

MUAC/Eurocontrol Sollingen High (Archives)
Beek, Netherlands

Feed Status: UP
Listen in your browser - HTML5 player(in browser, HTML5)
Listen right in your browser(in browser, requires Flash)
Click here to listen with your own player(launches your MP3 player)

EHBK 132125Z AUTO 06007KT 9999 SCT034 M01/M04 Q1020 NOSIG

EHBK Flight Activity (Flightaware)

Listeners: 0 out of 1452 total

MUAC Sollingen High Sector: 131.380

EHEH Approach #1 (Archives)
Eindhoven, Netherlands

Feed Status: UP
Listen in your browser - HTML5 player(in browser, HTML5)
Listen right in your browser(in browser, requires Flash)
Click here to listen with your own player(launches your MP3 player)

EHEH 132125Z AUTO 05008KT 9999 OVC036 01/M01 Q1021 BLU 05008KT 9999 BKN035

EHEH Flight Activity (Flightaware)

Listeners: 1 out of 1452 total

Eindhoven Approach: 132.525
Eindhoven Arrival/Director: 124.525
Emergency/Guard: 121.500

EHEH Approach #2 (Archives)
Eindhoven, Netherlands

Feed Status: UP
Listen in your browser - HTML5 player(in browser, HTML5)
Listen right in your browser(in browser, requires Flash)
Click here to listen with your own player(launches your MP3 player)

EHEH 132125Z AUTO 05008KT 9999 OVC036 01/M01 Q1021 BLU 05008KT 9999 BKN035

EHEH Flight Activity (Flightaware)

Listeners: 0 out of 1452 total

Eindhoven Approach/Arrival: 124.530
Eindhoven Approach/Arrival: 132.530
Eindhoven Approach/Arrival: 278.050

EHEH Ground (Archives)
Eindhoven, Netherlands

Feed Status: UP
Listen in your browser - HTML5 player(in browser, HTML5)
Listen right in your browser(in browser, requires Flash)
Click here to listen with your own player(launches your MP3 player)

EHEH 132125Z AUTO 05008KT 9999 OVC036 01/M01 Q1021 BLU 05008KT 9999 BKN035

EHEH Flight Activity (Flightaware)

Listeners: 1 out of 1452 total

Eindhoven Ground: 121.930
Eindhoven Ground: 369.250

EHEH Tower #1 (Archives)
Eindhoven, Netherlands

Feed Status: UP
Listen in your browser - HTML5 player(in browser, HTML5)
Listen right in your browser(in browser, requires Flash)
Click here to listen with your own player(launches your MP3 player)

EHEH 132125Z AUTO 05008KT 9999 OVC036 01/M01 Q1021 BLU 05008KT 9999 BKN035

EHEH Flight Activity (Flightaware)

Listeners: 1 out of 1452 total

Budel Tower: 122.150
Eindhoven Tower: 131.005
Emergency/Guard: 121.500
Generic Tower: 122.100
Volkel Tower: 136.075

EHEH Tower #2 (Archives)
Eindhoven, Netherlands

Feed Status: UP
Listen in your browser - HTML5 player(in browser, HTML5)
Listen right in your browser(in browser, requires Flash)
Click here to listen with your own player(launches your MP3 player)

EHEH 132125Z AUTO 05008KT 9999 OVC036 01/M01 Q1021 BLU 05008KT 9999 BKN035

EHEH Flight Activity (Flightaware)

Listeners: 0 out of 1452 total

Eindhoven Tower: 122.100
Eindhoven Tower: 131.005
Eindhoven Tower: 281.150

EHGG Approach (Archives)
Groningen, Netherlands

Feed Status: UP
Listen in your browser - HTML5 player(in browser, HTML5)
Listen right in your browser(in browser, requires Flash)
Click here to listen with your own player(launches your MP3 player)

EHGG 132125Z AUTO 07006KT 040V110 9999 NSC 01/M00 Q1024 NOSIG

EHGG Flight Activity (Flightaware)

Listeners: 0 out of 1452 total

Eelde Approach: 120.305

EHGG ATIS (Archives)
Groningen, Netherlands

Feed Status: UP
Listen in your browser - HTML5 player(in browser, HTML5)
Listen right in your browser(in browser, requires Flash)
Click here to listen with your own player(launches your MP3 player)

EHGG 132125Z AUTO 07006KT 040V110 9999 NSC 01/M00 Q1024 NOSIG

EHGG Flight Activity (Flightaware)

Listeners: 0 out of 1452 total

Groningen ATIS: 133.555

EHGG Ground (Archives)
Groningen, Netherlands

Feed Status: UP
Listen in your browser - HTML5 player(in browser, HTML5)
Listen right in your browser(in browser, requires Flash)
Click here to listen with your own player(launches your MP3 player)

EHGG 132125Z AUTO 07006KT 040V110 9999 NSC 01/M00 Q1024 NOSIG

EHGG Flight Activity (Flightaware)

Listeners: 0 out of 1452 total

Eelde Clearance Delivery/Ground: 121.705

EHGG Guard/Emergency (Archives)
Groningen, Netherlands

Feed Status: UP
Listen in your browser - HTML5 player(in browser, HTML5)
Listen right in your browser(in browser, requires Flash)
Click here to listen with your own player(launches your MP3 player)

EHGG 132125Z AUTO 07006KT 040V110 9999 NSC 01/M00 Q1024 NOSIG

EHGG Flight Activity (Flightaware)

Listeners: 0 out of 1452 total

Emergency/Guard: 121.500

EHGG Tower (Archives)
Groningen, Netherlands

Feed Status: UP
Listen in your browser - HTML5 player(in browser, HTML5)
Listen right in your browser(in browser, requires Flash)
Click here to listen with your own player(launches your MP3 player)

EHGG 132125Z AUTO 07006KT 040V110 9999 NSC 01/M00 Q1024 NOSIG

EHGG Flight Activity (Flightaware)

Listeners: 0 out of 1452 total

Eelde Tower: 118.705

MUAC/Eurocontrol (EHGG Area) (Archives)
Groningen, Netherlands

Feed Status: UP
Listen in your browser - HTML5 player(in browser, HTML5)
Listen right in your browser(in browser, requires Flash)
Click here to listen with your own player(launches your MP3 player)

EHGG 132125Z AUTO 07006KT 040V110 9999 NSC 01/M00 Q1024 NOSIG

EHGG Flight Activity (Flightaware)

Listeners: 0 out of 1452 total

MUAC Holstein High Sector: 132.775
MUAC Holstein Sector: 120.9333
MUAC Javer High Sector: 134.700
MUAC Jever Sector: 136.4666

EHGR Twr/TMA/App
Breda, Netherlands

Feed Status: DOWN
Offline since: 2018-12-13 07:53:02 UTC

EHGR 132125Z AUTO 04007KT 010V090 9999 NCD M01/M01 Q1021 BLU

Gilze Rijen Arrival U09 (UHF): 373.375
Gilze Rijen TMA D U16 (UHF) : 371.525
Gilze Rijen Tower U12 (UHF): 369.500

EHGR Mode-S Tracking
EHEH Mode-S Tracking

EHHV CTAF (Archives)
Hilversum, Netherlands

Feed Status: UP
Listen in your browser - HTML5 player(in browser, HTML5)
Listen right in your browser(in browser, requires Flash)
Click here to listen with your own player(launches your MP3 player)

EHHV Flight Activity (Flightaware)

Listeners: 0 out of 1452 total

Hilversum Radio: 131.025

Dutch Mil Radar (Archives)
Lelystad, Netherlands

Feed Status: UP
Listen in your browser - HTML5 player(in browser, HTML5)
Listen right in your browser(in browser, requires Flash)
Click here to listen with your own player(launches your MP3 player)

EHLE Flight Activity (Flightaware)

Listeners: 2 out of 1452 total

Dutch Mil Flight Info: 264.325
Dutch Mil Radar: 128.355
Dutch Mil Radar: 132.350

EHLE Air to Air (Archives)
Lelystad, Netherlands

Feed Status: UP
Listen in your browser - HTML5 player(in browser, HTML5)
Listen right in your browser(in browser, requires Flash)
Click here to listen with your own player(launches your MP3 player)

EHLE Flight Activity (Flightaware)

Listeners: 0 out of 1452 total

Lelystad Air to Air: 123.450

EHLE Fokker Four (Archives)
Lelystad, Netherlands

Feed Status: UP
Listen in your browser - HTML5 player(in browser, HTML5)
Listen right in your browser(in browser, requires Flash)
Click here to listen with your own player(launches your MP3 player)

EHLE Flight Activity (Flightaware)

Listeners: 0 out of 1452 total

Lelystad Fokker Four: 123.525

EHLE Microlight Aircraft (Archives)
Lelystad, Netherlands

Feed Status: UP
Listen in your browser - HTML5 player(in browser, HTML5)
Listen right in your browser(in browser, requires Flash)
Click here to listen with your own player(launches your MP3 player)

EHLE Flight Activity (Flightaware)

Listeners: 0 out of 1452 total

Lelystad Microlight Aircraft: 123.825

EHLE Radio (Archives)
Lelystad, Netherlands

Feed Status: UP
Listen in your browser - HTML5 player(in browser, HTML5)
Listen right in your browser(in browser, requires Flash)
Click here to listen with your own player(launches your MP3 player)

EHLE Flight Activity (Flightaware)

Listeners: 1 out of 1452 total

Lelystad Radio: 123.675

EHMC/EHML Military/Radar (Archives)
Nieuw-Milligen, Netherlands

Feed Status: UP
Listen in your browser - HTML5 player(in browser, HTML5)
Listen right in your browser(in browser, requires Flash)
Click here to listen with your own player(launches your MP3 player)

EHMC Flight Activity (Flightaware)

Listeners: 0 out of 1452 total

AMCC: 234.000
Belga Radar: 129.325
Command Post: 313.550
Dutch Military Radar: 120.825
Dutch Military Radar: 125.925
Dutch Military Radar: 128.350
GCI: 363.100
Lippe Radar: 131.075
London Mil: 135.275
Meteo: 284.425

Military Mode-S Logs
REACH Flights Europe Mode-S Logs
NOTE: Due to receiver distance only aircraft can be heard

EHMC/EHML Military/Radar (Archives)
Nieuw-Milligen, Netherlands

Feed Status: UP
Listen in your browser - HTML5 player(in browser, HTML5)
Listen right in your browser(in browser, requires Flash)
Click here to listen with your own player(launches your MP3 player)

EHMC Flight Activity (Flightaware)

Listeners: 0 out of 1452 total

AMCC: 234.000
Belga Radar: 129.325
Command Post: 313.550
Dutch Military Radar: 120.825
Dutch Military Radar: 125.925
Dutch Military Radar: 128.350
GCI: 363.100
Lippe Radar: 131.075
London Mil: 135.275
Meteo: 284.425

Military Mode-S Logs
REACH Flights Europe Mode-S Logs
NOTE: Due to receiver distance only aircraft can be heard

EHMM CTAF (Archives)
Middenmeer, Netherlands

Feed Status: UP
Listen in your browser - HTML5 player(in browser, HTML5)
Listen right in your browser(in browser, requires Flash)
Click here to listen with your own player(launches your MP3 player)

EHMM Flight Activity (Flightaware)

Listeners: 0 out of 1452 total

Middenmeer CTAF: 123.425

EHRD Approach (Archives)
Rotterdam, Netherlands

Feed Status: UP
Listen in your browser - HTML5 player(in browser, HTML5)
Listen right in your browser(in browser, requires Flash)
Click here to listen with your own player(launches your MP3 player)

EHRD 132125Z AUTO 06008KT 9999 FEW045 M00/M02 Q1022 NOSIG

EHRD Flight Activity (Flightaware)

Listeners: 1 out of 1452 total

Rotterdam Approach: 124.535
Rotterdam Approach: 281.050

EHRD Clearance Delivery (Archives)
Rotterdam, Netherlands

Feed Status: UP
Listen in your browser - HTML5 player(in browser, HTML5)
Listen right in your browser(in browser, requires Flash)
Click here to listen with your own player(launches your MP3 player)

EHRD 132125Z AUTO 06008KT 9999 FEW045 M00/M02 Q1022 NOSIG

EHRD Flight Activity (Flightaware)

Listeners: 0 out of 1452 total

Rotterdam Del/Gnd: 122.180

EHRD Del/Twr (Archives)
Rotterdam, Netherlands

Feed Status: UP
Listen in your browser - HTML5 player(in browser, HTML5)
Listen right in your browser(in browser, requires Flash)
Click here to listen with your own player(launches your MP3 player)

EHRD 132125Z AUTO 06008KT 9999 FEW045 M00/M02 Q1022 NOSIG

EHRD Flight Activity (Flightaware)

Listeners: 1 out of 1452 total

Rotterdam Del/Gnd: 122.180
Rotterdam Tower: 118.205

EHRD Gnd/Twr/App (Archives)
Rotterdam, Netherlands

Feed Status: UP
Listen in your browser - HTML5 player(in browser, HTML5)
Listen right in your browser(in browser, requires Flash)
Click here to listen with your own player(launches your MP3 player)

EHRD 132125Z AUTO 06008KT 9999 FEW045 M00/M02 Q1022 NOSIG

EHRD Flight Activity (Flightaware)

Listeners: 1 out of 1452 total

Adam Info: 124.300
Regional Guard: 119.705
Rotterdam Approach: 127.025
Rotterdam Del/Gnd: 122.180
Rotterdam Tower: 118.205
SAR: 123.100
SAR: 282.800

EHRD Tower (Archives)
Rotterdam, Netherlands

Feed Status: UP
Listen in your browser - HTML5 player(in browser, HTML5)
Listen right in your browser(in browser, requires Flash)
Click here to listen with your own player(launches your MP3 player)

EHRD 132125Z AUTO 06008KT 9999 FEW045 M00/M02 Q1022 NOSIG

EHRD Flight Activity (Flightaware)

Listeners: 1 out of 1452 total

Rotterdam Tower: 118.205
Rotterdam Tower: 362.300

EHRD Twr/App
Rotterdam, Netherlands

Feed Status: DOWN
Offline since: 2018-12-13 19:45:09 UTC

EHRD 132125Z AUTO 06008KT 9999 FEW045 M00/M02 Q1022 NOSIG

Rotterdam Approach: 127.025
Rotterdam Tower: 118.205

EHRD ADS-B Logs

EHTX Gnd/Twr (Archives)
Texel, Netherlands

Feed Status: UP
Listen in your browser - HTML5 player(in browser, HTML5)
Listen right in your browser(in browser, requires Flash)
Click here to listen with your own player(launches your MP3 player)

EHTX Flight Activity (Flightaware)

Listeners: 0 out of 1452 total

Texel Radio (Ground/Tower): 119.300

EHVL CTAF/Range Control (Archives)
Vlieland, Netherlands

Feed Status: UP
Listen in your browser - HTML5 player(in browser, HTML5)
Listen right in your browser(in browser, requires Flash)
Click here to listen with your own player(launches your MP3 player)

EHVL 132125Z AUTO 08012KT 9999 OVC054 01/M01 Q1024 BLU

EHVL Flight Activity (Flightaware)

Listeners: 1 out of 1452 total

Cornfield VHF (CTAF): 122.100
Range Controller (Primary): 279.000
Range Controller (Secondary): 369.200
Range Controller VHF: 138.075

EICK Approach/Departure (Archives)
Cork, Ireland

Feed Status: UP
Listen in your browser - HTML5 player(in browser, HTML5)
Listen right in your browser(in browser, requires Flash)
Click here to listen with your own player(launches your MP3 player)

EICK 132100Z 13016KT 2200 -RA SCT002 BKN003 07/07 Q1012 NOSIG

EICK Flight Activity (Flightaware)

Listeners: 0 out of 1452 total

Cork Approach: 119.900

EICK Gnd/Twr/App/Dep (Archives)
Cork, Ireland

Feed Status: UP
Listen in your browser - HTML5 player(in browser, HTML5)
Listen right in your browser(in browser, requires Flash)
Click here to listen with your own player(launches your MP3 player)

EICK 132100Z 13016KT 2200 -RA SCT002 BKN003 07/07 Q1012 NOSIG

EICK Flight Activity (Flightaware)

Listeners: 1 out of 1452 total

Cork Approach: 119.900
Cork Ground: 121.850
Cork Tower: 119.300

EICK Ground/Tower (Archives)
Cork, Ireland

Feed Status: UP
Listen in your browser - HTML5 player(in browser, HTML5)
Listen right in your browser(in browser, requires Flash)
Click here to listen with your own player(launches your MP3 player)

EICK 132100Z 13016KT 2200 -RA SCT002 BKN003 07/07 Q1012 NOSIG

EICK Flight Activity (Flightaware)

Listeners: 0 out of 1452 total

Cork Ground: 121.850
Cork Tower: 119.300

EIDW Approach (Archives)
Dublin, Ireland

Feed Status: UP
Listen in your browser - HTML5 player(in browser, HTML5)
Listen right in your browser(in browser, requires Flash)
Click here to listen with your own player(launches your MP3 player)

EIDW 132100Z 16016KT 9999 FEW018 BKN050 06/02 Q1016 WS RWY10 NOSIG

EIDW Flight Activity (Flightaware)

Listeners: 1 out of 1452 total

Dublin Approach: 121.100

EIDW Approach (Final) (Archives)
Dublin, Ireland

Feed Status: UP
Listen in your browser - HTML5 player(in browser, HTML5)
Listen right in your browser(in browser, requires Flash)
Click here to listen with your own player(launches your MP3 player)

EIDW 132100Z 16016KT 9999 FEW018 BKN050 06/02 Q1016 WS RWY10 NOSIG

EIDW Flight Activity (Flightaware)

Listeners: 0 out of 1452 total

Dublin Approach (Final): 119.925

EIDW Clearance Delivery (Archives)
Dublin, Ireland

Feed Status: UP
Listen in your browser - HTML5 player(in browser, HTML5)
Listen right in your browser(in browser, requires Flash)
Click here to listen with your own player(launches your MP3 player)

EIDW 132100Z 16016KT 9999 FEW018 BKN050 06/02 Q1016 WS RWY10 NOSIG

EIDW Flight Activity (Flightaware)

Listeners: 0 out of 1452 total

Dublin Clearance Delivery: 121.875

EIDW Del/Gnd/Twr/App/Center (Archives)
Dublin, Ireland

Feed Status: UP
Listen in your browser - HTML5 player(in browser, HTML5)
Listen right in your browser(in browser, requires Flash)
Click here to listen with your own player(launches your MP3 player)

EIDW 132100Z 16016KT 9999 FEW018 BKN050 06/02 Q1016 WS RWY10 NOSIG

EIDW Flight Activity (Flightaware)

Listeners: 13 out of 1452 total

Dublin Approach: 121.100
Dublin Approach (backup): 119.550
Dublin Centre North: 129.175
Dublin Centre South: 126.250
Dublin Clearance Delivery: 121.875
Dublin FIS: 118.500
Dublin Ground: 121.800
Dublin Tower: 118.600

EIDW Ground (Archives)
Dublin, Ireland

Feed Status: UP
Listen in your browser - HTML5 player(in browser, HTML5)
Listen right in your browser(in browser, requires Flash)
Click here to listen with your own player(launches your MP3 player)

EIDW 132100Z 16016KT 9999 FEW018 BKN050 06/02 Q1016 WS RWY10 NOSIG

EIDW Flight Activity (Flightaware)

Listeners: 2 out of 1452 total

Dublin Ground: 121.800

EIDW Ground (North) (Archives)
Dublin, Ireland

Feed Status: UP
Listen in your browser - HTML5 player(in browser, HTML5)
Listen right in your browser(in browser, requires Flash)
Click here to listen with your own player(launches your MP3 player)

EIDW 132100Z 16016KT 9999 FEW018 BKN050 06/02 Q1016 WS RWY10 NOSIG

EIDW Flight Activity (Flightaware)

Listeners: 0 out of 1452 total

Dublin Ground (North): 118.750

EIDW Ops (Archives)
Dublin, Ireland

Feed Status: UP
Listen in your browser - HTML5 player(in browser, HTML5)
Listen right in your browser(in browser, requires Flash)
Click here to listen with your own player(launches your MP3 player)

EIDW 132100Z 16016KT 9999 FEW018 BKN050 06/02 Q1016 WS RWY10 NOSIG

EIDW Flight Activity (Flightaware)

Listeners: 0 out of 1452 total

Misc:

EIDW Tower (Archives)
Dublin, Ireland

Feed Status: UP
Listen in your browser - HTML5 player(in browser, HTML5)
Listen right in your browser(in browser, requires Flash)
Click here to listen with your own player(launches your MP3 player)

EIDW 132100Z 16016KT 9999 FEW018 BKN050 06/02 Q1016 WS RWY10 NOSIG

EIDW Flight Activity (Flightaware)

Listeners: 2 out of 1452 total

Dublin Tower: 118.600

EIKN Gnd/Twr/App (Archives)
Charlestown, Ireland

Feed Status: UP
Listen in your browser - HTML5 player(in browser, HTML5)
Listen right in your browser(in browser, requires Flash)
Click here to listen with your own player(launches your MP3 player)

EIKN 132000Z 15011KT 110V180 4000 -RADZ OVC002 05/05 Q1012 NOSIG

EIKN Flight Activity (Flightaware)

Listeners: 0 out of 1452 total

Connaught Ground: 121.900
Connaught Tower: 130.700
Shannon Low Level: 119.075

Special Note: Sponsored by CAC

EINN Approach/Departure
Shannon, Ireland

Feed Status: DOWN
Offline since: 2018-12-05 08:43:03 UTC

EINN 132100Z 14015KT 9999 -DZ FEW009 SCT013 BKN019 07/06 Q1013 NOSIG

Shannon Approach Radar: 121.400
Shannon Low: 124.700

EINN Gnd/Twr/Ops
Shannon, Ireland

Feed Status: DOWN
Offline since: 2018-12-05 08:43:03 UTC

EINN 132100Z 14015KT 9999 -DZ FEW009 SCT013 BKN019 07/06 Q1013 NOSIG

Aer Lingus Ops: 131.500
Service Air Ops: 131.450
Shannon Ground: 121.800
Shannon Tower: 118.700
Sig Ops (Pre-Clearance): 131.590

EINN Shannon Control High #1
Shannon, Ireland

Feed Status: DOWN
Offline since: 2018-12-05 08:43:03 UTC

EINN 132100Z 14015KT 9999 -DZ FEW009 SCT013 BKN019 07/06 Q1013 NOSIG

Shannon Clearance (Oceanic only): 121.700
Shannon Control: 134.630
Shannon Control: 134.260
Shannon Control: 119.075
Shannon Control (BABAN/DEVOL Sector): 132.150
Shannon Control (Cork Sector): 131.150
Shannon Control (Shannon Sector): 134.280
Shannon Control (SOTA Sector): 135.600
Shannon Control NOTA: 125.875
Shannon Control NOTA: 122.980
Shannon High Level (SOTA Sector): 135.230
Shanwick Radio: 127.650
Track Information: 133.800

EINN Twr/App #1 (Archives)
Shannon, Ireland

Feed Status: UP
Listen in your browser - HTML5 player(in browser, HTML5)
Listen right in your browser(in browser, requires Flash)
Click here to listen with your own player(launches your MP3 player)

EINN 132100Z 14015KT 9999 -DZ FEW009 SCT013 BKN019 07/06 Q1013 NOSIG

EINN Flight Activity (Flightaware)

Listeners: 4 out of 1452 total

Aer Lingus Ops: 131.500
Service Air Ops: 131.450
Shannon Approach Radar: 121.400
Shannon Control: Misc
Shannon Ground: 121.800
Shannon Tower: 118.700
Sig Ops (Pre-Clearance): 131.590

EKBI/EKVD Approach
Vamdrup, Denmark

Feed Status: DOWN
Offline since: 2016-05-10 18:24:04 UTC

EKBI 132120Z 03008KT 5000 -SHSN SCT007 SCT020TCU BKN041 01/M01 Q1028

Billund Approach: 127.575
Skrydstrup Approach: 127.475
Vamdrup AFIS: 120.500

ENAT Twr/App/Control (Archives)
Alta, Norway

Feed Status: UP
Listen in your browser - HTML5 player(in browser, HTML5)
Listen right in your browser(in browser, requires Flash)
Click here to listen with your own player(launches your MP3 player)

ENAT 132050Z 25007KT 9999 BKN044 06/M01 Q1020 RMK WIND 700FT 22009KT

ENAT Flight Activity (Flightaware)

Listeners: 0 out of 1452 total

Alta Tower (to boat, Harbour Channel 12): 156.600
Alta Tower (to vehicle): 462.400
Alta Tower/Approach: 120.400
Norway Control: 126.700

ENBO Approach (Archives)
Bodo, Norway

Feed Status: UP
Listen in your browser - HTML5 player(in browser, HTML5)
Listen right in your browser(in browser, requires Flash)
Click here to listen with your own player(launches your MP3 player)

ENBO 132120Z 10009KT 9999 VCSH FEW015 BKN025 02/M03 Q1029 NOSIG

ENBO Flight Activity (Flightaware)

Listeners: 0 out of 1452 total

Bodo Approach: 119.700

ENBO Tower (Archives)
Bodo, Norway

Feed Status: UP
Listen in your browser - HTML5 player(in browser, HTML5)
Listen right in your browser(in browser, requires Flash)
Click here to listen with your own player(launches your MP3 player)

ENBO 132120Z 10009KT 9999 VCSH FEW015 BKN025 02/M03 Q1029 NOSIG

ENBO Flight Activity (Flightaware)

Listeners: 1 out of 1452 total

Bodo Tower: 118.100

ENCN Tower/Approach (Archives)
Kristiansand, Norway

Feed Status: UP
Listen in your browser - HTML5 player(in browser, HTML5)
Listen right in your browser(in browser, requires Flash)
Click here to listen with your own player(launches your MP3 player)

ENCN 132120Z 05010KT 9999 FEW020 BKN044 M00/M04 Q1032

ENCN Flight Activity (Flightaware)

Listeners: 1 out of 1452 total

Kjevik Tower: 118.100
Kjevik Tower/Approach: 119.950

ENEV Twr/App/ACC (Archives)
Evenes, Norway

Feed Status: UP
Listen in your browser - HTML5 player(in browser, HTML5)
Listen right in your browser(in browser, requires Flash)
Click here to listen with your own player(launches your MP3 player)

ENEV 132050Z 22008KT 190V250 9999 -RADZ OVC028 04/01 Q1027 RMK WIND 1400FT 23020KT

ENEV Flight Activity (Flightaware)

Listeners: 0 out of 1452 total

Evenes Approach: 120.100
Evenes Tower: 118.000
Norway ACC (Bodo Sector 25): 126.450

ENGM Approach (Archives)
Oslo, Norway

Feed Status: UP
Listen in your browser - HTML5 player(in browser, HTML5)
Listen right in your browser(in browser, requires Flash)
Click here to listen with your own player(launches your MP3 player)

ENGM 132120Z 31003KT 280V350 9999 SCT005 BKN007 M09/M11 Q1034 NOSIG

ENGM Flight Activity (Flightaware)

Listeners: 1 out of 1452 total

Oslo Approach: 118.475
Oslo Approach: 120.450

ENKJ RDO (Archives)
Kjeller, Norway

Feed Status: UP
Listen in your browser - HTML5 player(in browser, HTML5)
Listen right in your browser(in browser, requires Flash)
Click here to listen with your own player(launches your MP3 player)

ENKJ Flight Activity (Flightaware)

Listeners: 0 out of 1452 total

Kjeller RDO: 119.100

ENLI CTAF (Archives)
Farsund, Norway

Feed Status: UP
Listen in your browser - HTML5 player(in browser, HTML5)
Listen right in your browser(in browser, requires Flash)
Click here to listen with your own player(launches your MP3 player)

ENLI Flight Activity (Flightaware)

Listeners: 0 out of 1452 total

Lista Traffic/Lista Radio: 126.450

ENRK CTAF
Astorp, Norway

Feed Status: DOWN
Offline since: 2018-12-11 08:53:02 UTC

Rakkestad CTAF: 122.950

ENOR Sector 8 (Archives)
Moss, Norway

Feed Status: UP
Listen in your browser - HTML5 player(in browser, HTML5)
Listen right in your browser(in browser, requires Flash)
Click here to listen with your own player(launches your MP3 player)

ENOR Flight Activity (Flightaware)

Listeners: 0 out of 1452 total

Norway Center (FIR) Sector 8: 118.875

ENRY Tower (Archives)
Moss, Norway

Feed Status: UP
Listen in your browser - HTML5 player(in browser, HTML5)
Listen right in your browser(in browser, requires Flash)
Click here to listen with your own player(launches your MP3 player)

ENRY 132120Z 02007KT 9999 BKN025 M05/M07 Q1035

ENRY Flight Activity (Flightaware)

Listeners: 0 out of 1452 total

Rygge Tower: 119.500

ENSO AFIS (Archives)
Stord, Norway

Feed Status: UP
Listen in your browser - HTML5 player(in browser, HTML5)
Listen right in your browser(in browser, requires Flash)
Click here to listen with your own player(launches your MP3 player)

ENSO 132120Z 12005KT CAVOK M00/M04 Q1031

ENSO Flight Activity (Flightaware)

Listeners: 0 out of 1452 total

Stord AFIS: 120.200

Feed sponsored by:

ENTC Tower/App (Archives)
Langnes, Norway

Feed Status: UP
Listen in your browser - HTML5 player(in browser, HTML5)
Listen right in your browser(in browser, requires Flash)
Click here to listen with your own player(launches your MP3 player)

ENTC 132120Z 22020KT 9999 -SHRA BKN025 04/02 Q1023 NOSIG

ENTC Flight Activity (Flightaware)

Listeners: 0 out of 1452 total

Langnes Tower: 118.300
Langnes VDF (Approach): 123.750

ENTO Tower/App (Archives)
Sandefjord, Norway

Feed Status: UP
Listen in your browser - HTML5 player(in browser, HTML5)
Listen right in your browser(in browser, requires Flash)
Click here to listen with your own player(launches your MP3 player)

ENTO 132120Z 01010KT 9999 OVC006 M05/M07 Q1034

ENTO Flight Activity (Flightaware)

Listeners: 0 out of 1452 total

ENJB Tonsberg Airport - Jarlsberg - CTAF: 122.300
Farris Approach (TCA): 134.050
Sandefjord Tower: 118.650

ENVA Gnd/Twr/App (Archives)
Trondheim, Norway

Feed Status: UP
Listen in your browser - HTML5 player(in browser, HTML5)
Listen right in your browser(in browser, requires Flash)
Click here to listen with your own player(launches your MP3 player)

ENVA 132120Z 11008KT CAVOK M13/M15 Q1033 RMK WIND 670FT VRB01KT

ENVA Flight Activity (Flightaware)

Listeners: 2 out of 1452 total

Trondheim Approach: 118.600
Trondheim Ground: 121.600
Trondheim Tower: 119.400

EPCD Radio
Lublin, Poland

Feed Status: DOWN
Offline since: 2018-12-01 13:09:03 UTC

Depultycze Radio: 119.575

EPGD Tower/Approach (Archives)
Gdansk, Poland

Feed Status: UP
Listen in your browser - HTML5 player(in browser, HTML5)
Listen right in your browser(in browser, requires Flash)
Click here to listen with your own player(launches your MP3 player)

EPGD 132100Z 12008KT 9999 FEW007 BKN012 M02/M04 Q1025 R11/510195

EPGD Flight Activity (Flightaware)

Listeners: 0 out of 1452 total

Gdansk Approach: 127.275
Gdansk Tower: 118.100

EPKK Tower/App (Archives)
Krakow, Poland

Feed Status: UP
Listen in your browser - HTML5 player(in browser, HTML5)
Listen right in your browser(in browser, requires Flash)
Click here to listen with your own player(launches your MP3 player)

EPKK 132100Z 23003KT 2000 BR BKN004 M00/M01 Q1021 R25/81//95

EPKK Flight Activity (Flightaware)

Listeners: 3 out of 1452 total

Krakow Approach: 121.075
Krakow Approach: 123.258
Krakow Tower: 123.250

EPKR CTAF (Archives)
Krosno, Poland

Feed Status: UP
Listen in your browser - HTML5 player(in browser, HTML5)
Listen right in your browser(in browser, requires Flash)
Click here to listen with your own player(launches your MP3 player)

EPKR Flight Activity (Flightaware)

Listeners: 0 out of 1452 total

Krosno CTAF: 122.400

EPKT Del/Twr/App (Archives)
Katowice, Poland

Feed Status: UP
Listen in your browser - HTML5 player(in browser, HTML5)
Listen right in your browser(in browser, requires Flash)
Click here to listen with your own player(launches your MP3 player)

EPKT 132100Z VRB02KT 1200 R27/2000N BR FEW002 OVC027 M01/M02 Q1021

EPKT Flight Activity (Flightaware)

Listeners: 2 out of 1452 total

Katowice Delivery: 121.800
Katowice Tower: 129.250
Krakow Approach: 135.400
Krakow Approach: 121.075

EPKT Delivery/Approach (Archives)
Katowice, Poland

Feed Status: UP
Listen in your browser - HTML5 player(in browser, HTML5)
Listen right in your browser(in browser, requires Flash)
Click here to listen with your own player(launches your MP3 player)

EPKT 132100Z VRB02KT 1200 R27/2000N BR FEW002 OVC027 M01/M02 Q1021

EPKT Flight Activity (Flightaware)

Listeners: 0 out of 1452 total

Katowice Delivery: 121.800
Krakow Approach: 121.075

EPKT Tower/Approach (Archives)
Katowice, Poland

Feed Status: UP
Listen in your browser - HTML5 player(in browser, HTML5)
Listen right in your browser(in browser, requires Flash)
Click here to listen with your own player(launches your MP3 player)

EPKT 132100Z VRB02KT 1200 R27/2000N BR FEW002 OVC027 M01/M02 Q1021

EPKT Flight Activity (Flightaware)

Listeners: 2 out of 1452 total

Katowice Tower: 129.250
Krakow Approach: 135.400

EPLL Tower (Archives)
Lodz, Poland

Feed Status: UP
Listen in your browser - HTML5 player(in browser, HTML5)
Listen right in your browser(in browser, requires Flash)
Click here to listen with your own player(launches your MP3 player)

EPLL 132100Z 05006KT 9999 FEW008 BKN010 OVC013 M01/M02 Q1023

EPLL Flight Activity (Flightaware)

Listeners: 0 out of 1452 total

Lodz Tower: 124.225

EPPO Twr/App/FIS (Archives)
Poznan, Poland

Feed Status: UP
Listen in your browser - HTML5 player(in browser, HTML5)
Listen right in your browser(in browser, requires Flash)
Click here to listen with your own player(launches your MP3 player)

EPPO 132100Z 09006KT 9999 OVC029 M01/M04 Q1024

EPPO Flight Activity (Flightaware)

Listeners: 0 out of 1452 total

Poznan Approach: 129.025
Poznan Approach: 127.225
Poznan FIS: 126.300
Poznan Tower: 119.975

Sponsored by: GearUp!

EPRZ Del/Twr/EPWW Radar (Archives)
Jasionka, Poland

Feed Status: UP
Listen in your browser - HTML5 player(in browser, HTML5)
Listen right in your browser(in browser, requires Flash)
Click here to listen with your own player(launches your MP3 player)

EPRZ 132100Z 01007KT 7000 -SN BKN005 OVC014 M01/M02 Q1021

EPRZ Flight Activity (Flightaware)

Listeners: 1 out of 1452 total

EPWW Radar: 134.175
EPWW Radar: 120.950
Rzeszow Delivery: 121.800
Rzeszow Tower: 126.800

EPWA Approach #1 (Archives)
Warsaw, Poland

Feed Status: UP
Listen in your browser - HTML5 player(in browser, HTML5)
Listen right in your browser(in browser, requires Flash)
Click here to listen with your own player(launches your MP3 player)

EPWA 132100Z 02006KT 9999 BKN015 M00/M03 Q1023 NOSIG

EPWA Flight Activity (Flightaware)

Listeners: 10 out of 1452 total

Warsaw Approach: 128.800

EPWA Approach #2 (Archives)
Warsaw, Poland

Feed Status: UP
Listen in your browser - HTML5 player(in browser, HTML5)
Listen right in your browser(in browser, requires Flash)
Click here to listen with your own player(launches your MP3 player)

EPWA 132100Z 02006KT 9999 BKN015 M00/M03 Q1023 NOSIG

EPWA Flight Activity (Flightaware)

Listeners: 0 out of 1452 total

Warsaw Approach: 125.050

EPWA Clearance Delivery (Archives)
Warsaw, Poland

Feed Status: UP
Listen in your browser - HTML5 player(in browser, HTML5)
Listen right in your browser(in browser, requires Flash)
Click here to listen with your own player(launches your MP3 player)

EPWA 132100Z 02006KT 9999 BKN015 M00/M03 Q1023 NOSIG

EPWA Flight Activity (Flightaware)

Listeners: 0 out of 1452 total

Warsaw Clearance Delivery: 121.600

EPWA Director (Archives)
Warsaw, Poland

Feed Status: UP
Listen in your browser - HTML5 player(in browser, HTML5)
Listen right in your browser(in browser, requires Flash)
Click here to listen with your own player(launches your MP3 player)

EPWA 132100Z 02006KT 9999 BKN015 M00/M03 Q1023 NOSIG

EPWA Flight Activity (Flightaware)

Listeners: 0 out of 1452 total

Warsaw Director: 129.375

EPWA Ground (Archives)
Warsaw, Poland

Feed Status: UP
Listen in your browser - HTML5 player(in browser, HTML5)
Listen right in your browser(in browser, requires Flash)
Click here to listen with your own player(launches your MP3 player)

EPWA 132100Z 02006KT 9999 BKN015 M00/M03 Q1023 NOSIG

EPWA Flight Activity (Flightaware)

Listeners: 0 out of 1452 total

Warsaw Ground: 121.900

EPWA Tower #1 (Archives)
Warsaw, Poland

Feed Status: UP
Listen in your browser - HTML5 player(in browser, HTML5)
Listen right in your browser(in browser, requires Flash)
Click here to listen with your own player(launches your MP3 player)

EPWA 132100Z 02006KT 9999 BKN015 M00/M03 Q1023 NOSIG

EPWA Flight Activity (Flightaware)

Listeners: 2 out of 1452 total

Warsaw Tower: 118.300

EPWA Tower #2 (Archives)
Warsaw, Poland

Feed Status: UP
Listen in your browser - HTML5 player(in browser, HTML5)
Listen right in your browser(in browser, requires Flash)
Click here to listen with your own player(launches your MP3 player)

EPWA 132100Z 02006KT 9999 BKN015 M00/M03 Q1023 NOSIG

EPWA Flight Activity (Flightaware)

Listeners: 23 out of 1452 total

Warsaw Tower: 118.300

Audio provided by: datahouse.pl

EPWR Tower (Archives)
Wroclaw, Poland

Feed Status: UP
Listen in your browser - HTML5 player(in browser, HTML5)
Listen right in your browser(in browser, requires Flash)
Click here to listen with your own player(launches your MP3 player)

EPWR 132100Z 08004KT 040V100 2200 -DZ BR BKN002 OVC003 01/00 Q1023 R11/29//95

EPWR Flight Activity (Flightaware)

Listeners: 0 out of 1452 total

Wroclaw Tower: 120.250

EPWR Twr/App (Archives)
Wroclaw, Poland

Feed Status: UP
Listen in your browser - HTML5 player(in browser, HTML5)
Listen right in your browser(in browser, requires Flash)
Click here to listen with your own player(launches your MP3 player)

EPPO 132100Z 09006KT 9999 OVC029 M01/M04 Q1024

EPPO Flight Activity (Flightaware)

Listeners: 0 out of 1452 total

Poznan Approach (South): 127.225

EPWS AFIS (Archives)
Wroclaw, Poland

Feed Status: UP
Listen in your browser - HTML5 player(in browser, HTML5)
Listen right in your browser(in browser, requires Flash)
Click here to listen with your own player(launches your MP3 player)

EPWS Flight Activity (Flightaware)

Listeners: 0 out of 1452 total

Szymanow Radio AFIS: 122.800

EPRZ Del/Twr/EPWW Radar (Archives)
Jasionka, Poland

Feed Status: UP
Listen in your browser - HTML5 player(in browser, HTML5)
Listen right in your browser(in browser, requires Flash)
Click here to listen with your own player(launches your MP3 player)

EPRZ 132100Z 01007KT 7000 -SN BKN005 OVC014 M01/M02 Q1021

EPRZ Flight Activity (Flightaware)

Listeners: 1 out of 1452 total

EPWW Radar: 134.175
EPWW Radar: 120.950
Rzeszow Delivery: 121.800
Rzeszow Tower: 126.800

ESDF Twr/Control/Misc
Ronneby, Sweden

Feed Status: DOWN
Offline since: 2018-11-30 17:23:02 UTC

ESDF 132120Z 02005KT 4000 -SN SCT007 BKN010 00/M00 Q1028

Cooperative Emergency Channel: 123.100
Emergency/Guard: 121.500
Marine Channel 16 (Emergency): 156.800
Ronneby Control: 128.450
Ronneby Tower: 119.200

ESGG Gnd/Twr/Control (Archives)
Gothenburg, Sweden

Feed Status: UP
Listen in your browser - HTML5 player(in browser, HTML5)
Listen right in your browser(in browser, requires Flash)
Click here to listen with your own player(launches your MP3 player)

ESGG 132120Z 04006KT 9999 BKN014 M03/M05 Q1031 R03/19//95

ESGG Flight Activity (Flightaware)

Listeners: 3 out of 1452 total

City Airport Ops: 130.850
City Airport Tower: 119.050
Emergency/Guard: 121.500
Goteborg Arrival: 120.125
Goteborg Control: 124.675
Goteborg Control: 124.200
Landvetter Ground: 121.900
Landvetter Tower: 118.600

ESML CTAF
Landskrona, Sweden

Feed Status: DOWN
Offline since: 2018-10-12 08:32:02 UTC

Landskrona CTAF: 123.350
Sweden Control: 134.975

ESML Webcam
ESML Weather

ESMS Tower (Archives)
Svedala, Sweden

Feed Status: UP
Listen in your browser - HTML5 player(in browser, HTML5)
Listen right in your browser(in browser, requires Flash)
Click here to listen with your own player(launches your MP3 player)

ESMS 132120Z 03006KT 9999 FEW010 OVC051 M00/M01 Q1027 R17/09//95

ESMS Flight Activity (Flightaware)

Listeners: 0 out of 1452 total

Malmo Tower: 118.800

ESPA Twr/Control (Archives)
Lulea, Sweden

Feed Status: UP
Listen in your browser - HTML5 player(in browser, HTML5)
Listen right in your browser(in browser, requires Flash)
Click here to listen with your own player(launches your MP3 player)

ESPA 132120Z 32002KT CAVOK M18/M20 Q1030

ESPA Flight Activity (Flightaware)

Listeners: 1 out of 1452 total

Emergency/Guard: 121.500
Kallax Control: 125.450
Kallax Tower: 128.200
Sweden Control North: 131.050

ESSB Del/Gnd/Twr/App
Stockholm, Sweden

Feed Status: DOWN
Offline since: 2018-12-11 21:06:02 UTC

ESSB 132120Z AUTO 36004KT 340V040 5000 SG FEW005/// SCT007/// OVC014/// M01/M02 Q1034

Arlanda Approach: 120.150
Arlanda Approach: 123.750
Arlanda Approach: 124.100
Arlanda Approach: 126.650
Bromma Clearance/Ground: 121.600
Bromma Tower: 118.100
Grafair: 131.750

ESSG Misc (Archives)
Ludvika, Sweden

Feed Status: UP
Listen in your browser - HTML5 player(in browser, HTML5)
Listen right in your browser(in browser, requires Flash)
Click here to listen with your own player(launches your MP3 player)

ESSG Flight Activity (Flightaware)

Listeners: 0 out of 1452 total

Avesta, Gagnef, Siljansnas: 123.550
Borlange Tower: 127.300
Dala-Jarna: 123.350
Emergency/Guard: 121.500
Karlstad: 119.450
Koping, Arboga, Borberg: 123.150
Ludvika CTAF: 122.100
Mora: 129.850
Orebro: 120.275
Orsa: 123.400
Soaring Freq: 123.500
Sweden Control: 131.125
Sweden Control: 129.175
Sweden Control: 118.200
Sweden Control: 132.150

ESSL Twr/App/Control (Archives)
Linkoping, Sweden

Feed Status: UP
Listen in your browser - HTML5 player(in browser, HTML5)
Listen right in your browser(in browser, requires Flash)
Click here to listen with your own player(launches your MP3 player)

ESSL 132120Z 02007KT 9999 BKN008 M01/M01 Q1032 R29/19//95

ESSL Flight Activity (Flightaware)

Listeners: 0 out of 1452 total

Emergency/Guard: 121.500
Linkoping Tower: 118.800
Linkoping Tower (Secondary): 123.400
Ostgota Control: 127.350
Ostgota Control: 126.400
Ostgota Control: 135.850
Ostgota Control: 132.950
Ostgota Control: 128.700
Ostgota Control (Malmen Sector): 133.100
Ostgota Control/Sweden Control: 118.400

ESVQ CTAF (Archives)
Koping, Sweden

Feed Status: UP
Listen in your browser - HTML5 player(in browser, HTML5)
Listen right in your browser(in browser, requires Flash)
Click here to listen with your own player(launches your MP3 player)

ESVQ Flight Activity (Flightaware)

Listeners: 0 out of 1452 total

Koping CTAF: 123.150

EVRA Approach (Archives)
Riga, Latvia

Feed Status: UP
Listen in your browser - HTML5 player(in browser, HTML5)
Listen right in your browser(in browser, requires Flash)
Click here to listen with your own player(launches your MP3 player)

EVRA 132120Z 04007KT 9999 FEW026 M00/M02 Q1028 R36/190095 NOSIG

EVRA Flight Activity (Flightaware)

Listeners: 1 out of 1452 total

Riga Approach: 129.925

EVRA CTAF (Archives)
Riga, Latvia

Feed Status: UP
Listen in your browser - HTML5 player(in browser, HTML5)
Listen right in your browser(in browser, requires Flash)
Click here to listen with your own player(launches your MP3 player)

EVRA 132120Z 04007KT 9999 FEW026 M00/M02 Q1028 R36/190095 NOSIG

EVRA Flight Activity (Flightaware)

Listeners: 0 out of 1452 total

Riga Approach (evenings): 134.850
Riga CTAF: 123.950

EVRA FIC (Archives)
Riga, Latvia

Feed Status: UP
Listen in your browser - HTML5 player(in browser, HTML5)
Listen right in your browser(in browser, requires Flash)
Click here to listen with your own player(launches your MP3 player)

EVRA 132120Z 04007KT 9999 FEW026 M00/M02 Q1028 R36/190095 NOSIG

EVRA Flight Activity (Flightaware)

Listeners: 0 out of 1452 total

Riga FIC: 120.225

EVRA Tower/Guard (Archives)
Riga, Latvia

Feed Status: UP
Listen in your browser - HTML5 player(in browser, HTML5)
Listen right in your browser(in browser, requires Flash)
Click here to listen with your own player(launches your MP3 player)

EVRA 132120Z 04007KT 9999 FEW026 M00/M02 Q1028 R36/190095 NOSIG

EVRA Flight Activity (Flightaware)

Listeners: 0 out of 1452 total

Emergency/Guard: 121.500
Riga Tower: 118.100

EYKA Gnd/Twr/FIS (Archives)
Kaunas, Lithuania

Feed Status: UP
Listen in your browser - HTML5 player(in browser, HTML5)
Listen right in your browser(in browser, requires Flash)
Click here to listen with your own player(launches your MP3 player)

EYKA 132120Z 01006KT 340V050 9999 BKN017 OVC020 M01/M03 Q1025 R08/29//95

EYKA Flight Activity (Flightaware)

Listeners: 0 out of 1452 total

EYKS (ALEKSOTAS) Info: 135.500
Kaunas Approach: 124.200
Kaunas Info: 124.600
Kaunas Tower: 118.500

EYVI Twr/App/Misc (Archives)
Vilnius, Lithuania

Feed Status: UP
Listen in your browser - HTML5 player(in browser, HTML5)
Listen right in your browser(in browser, requires Flash)
Click here to listen with your own player(launches your MP3 player)

EYVI 132120Z 03008KT 6000 -SN OVC009 M01/M02 Q1023 R01/2///95 NOSIG

EYVI Flight Activity (Flightaware)

Listeners: 1 out of 1452 total

Emergency / GUARD: 121.500
FlyLAL, AirBaltic transit services: 131.900
FlyLAL, AirBaltic transit services: 131.600
FlyLAL, AirBaltic transit services: 131.500
Kaunas Approach (EYKA): 124.200
Vilnius Approach: 120.700
Vilnius Control: 132.275
Vilnius Control: 133.425
Vilnius Control: 133.300
Vilnius FIS: 123.850
Vilnius Tower: 118.200
Zokniai A/G (mil): 122.775

EYVP CTAF (Archives)
Paluknys, Lithuania

Feed Status: UP
Listen in your browser - HTML5 player(in browser, HTML5)
Listen right in your browser(in browser, requires Flash)
Click here to listen with your own player(launches your MP3 player)

EYVP Flight Activity (Flightaware)

Listeners: 0 out of 1452 total

EYVP Paluknis CTAF: 119.100

LATI Twr/App/ACC (Archives)
Tirana, Albania

Feed Status: UP
Listen in your browser - HTML5 player(in browser, HTML5)
Listen right in your browser(in browser, requires Flash)
Click here to listen with your own player(launches your MP3 player)

LATI 132120Z 17003KT 7000 OVC046 07/03 Q1013 NOSIG

LATI Flight Activity (Flightaware)

Listeners: 0 out of 1452 total

Tirana Approach/Departure: 133.150
Tirana Approach/Departure: 131.075
Tirana Tower: 122.500
Tirana Tower: 123.500

LBBG Twr/App (Archives)
Burgas, Bulgaria

Feed Status: UP
Listen in your browser - HTML5 player(in browser, HTML5)
Listen right in your browser(in browser, requires Flash)
Click here to listen with your own player(launches your MP3 player)

LBBG 132100Z VRB02KT CAVOK 00/M04 Q1020 NOSIG

LBBG Flight Activity (Flightaware)

Listeners: 0 out of 1452 total

Burgas Approach: 125.100
Burgas Tower: 118.000

LBSF Sofia Control East (Archives)
Sofia, Bulgaria

Feed Status: UP
Listen in your browser - HTML5 player(in browser, HTML5)
Listen right in your browser(in browser, requires Flash)
Click here to listen with your own player(launches your MP3 player)

LBSF 132100Z 18003KT 9999 FEW068 M00/M04 Q1017 NOSIG

LBSF Flight Activity (Flightaware)

Listeners: 1 out of 1452 total

Sofia Control (East/Middle Sector): 129.100
Sofia Control (Varna Sector): 134.700

LBSF Twr/App #1 (Archives)
Sofia, Bulgaria

Feed Status: UP
Listen in your browser - HTML5 player(in browser, HTML5)
Listen right in your browser(in browser, requires Flash)
Click here to listen with your own player(launches your MP3 player)

LBSF 132100Z 18003KT 9999 FEW068 M00/M04 Q1017 NOSIG

LBSF Flight Activity (Flightaware)

Listeners: 2 out of 1452 total

Sofia Approach: 123.700
Sofia Approach: 129.900
Sofia Tower: 118.100
Sofia Tower: 120.200

LBSF Twr/App #2 (Archives)
Sofia, Bulgaria

Feed Status: UP
Listen in your browser - HTML5 player(in browser, HTML5)
Listen right in your browser(in browser, requires Flash)
Click here to listen with your own player(launches your MP3 player)

LBSF 132100Z 18003KT 9999 FEW068 M00/M04 Q1017 NOSIG

LBSF Flight Activity (Flightaware)

Listeners: 0 out of 1452 total

Sofia Approach: 123.700
Sofia Tower: 118.100

LBWN Tower/Approach (Archives)
Varna, Bulgaria

Feed Status: UP
Listen in your browser - HTML5 player(in browser, HTML5)
Listen right in your browser(in browser, requires Flash)
Click here to listen with your own player(launches your MP3 player)

LBWN 132100Z VRB01KT CAVOK M02/M03 Q1020 NOSIG

LBWN Flight Activity (Flightaware)

Listeners: 0 out of 1452 total

Varna Approach: 121.000
Varna Tower: 119.500

Bordeaux Control (Archives)
Bordeaux, France

Feed Status: UP
Listen in your browser - HTML5 player(in browser, HTML5)
Listen right in your browser(in browser, requires Flash)
Click here to listen with your own player(launches your MP3 player)

LFBD 132100Z AUTO 36003KT 5000 BR BKN003 BKN018 BKN044 07/07 Q1011 NOSIG

LFBD Flight Activity (Flightaware)

Listeners: out of 1452 total

Air to Air: 123.450
Bordeaux Control BN FL<300: 127.675
Bordeaux Control L3 FL>300: 134.250
Bordeaux Control R2 FL>300: 133.575
Emergency/Guard: 121.500

NOTE: In case of garbled sound, please refresh the player.

LFBU/LFBL Tower
Limoges, France

Feed Status: DOWN
Offline since: 2018-11-19 20:05:05 UTC

LFBU 132100Z AUTO 03007KT 6000 NSC 02/00 Q1011 NOSIG

LFBL Limoges Tower: 124.055
LFBU Angouleme Tower: 123.150
Medoc: 124.325

Bordeaux Control
Angouleme, France

Feed Status: DOWN
Offline since: 2018-12-13 21:33:02 UTC

LFBD 132100Z AUTO 36003KT 5000 BR BKN003 BKN018 BKN044 07/07 Q1011 NOSIG

Air to Air: 123.450
Bordeaux Control BN FL<300: 127.675
Bordeaux Control L3 FL>300: 134.250
Bordeaux Control R2 FL>300: 133.575
Emergency/Guard: 121.500

NOTE: In case of garbled sound, please refresh the player.

LFBZ Tower (Archives)
Biarritz, France

Feed Status: UP
Listen in your browser - HTML5 player(in browser, HTML5)
Listen right in your browser(in browser, requires Flash)
Click here to listen with your own player(launches your MP3 player)

LFBZ 132100Z AUTO 31015KT 9999 SCT020/// BKN029/// BKN044/// ///TCU 12/10 Q1012 TEMPO 30020G40KT 3000 SHRA BKN008 BKN020TCU

LFBZ Flight Activity (Flightaware)

Listeners: 1 out of 1452 total


LFLL Tower
Lyon, France

Feed Status: DOWN
Offline since: 2018-11-14 09:19:03 UTC

LFLL 132100Z 00000KT 6000 FEW035 OVC053 M01/M02 Q1012 NOSIG

Lyon Tower: 120.450

Lyon FIS
Lyon, France

Feed Status: DOWN
Offline since: 2018-11-14 09:19:03 UTC

LFLL 132100Z 00000KT 6000 FEW035 OVC053 M01/M02 Q1012 NOSIG

Lyon FIS: 135.200

LFLP Twr/LFLB App
Annecy, France

Feed Status: DOWN
Offline since: 2018-12-13 16:06:03 UTC

LFLP 132100Z AUTO 33003KT 210V020 9999 FEW046 BKN054 OVC072 01/M04 Q1011

Annecy Tower: 118.200
Chambery Approach: 121.200
Chambery Info: 123.700

NOTE: Reception might be deteriorated due to terrain surrounding feed

LFLY Tower
Bron, France

Feed Status: DOWN
Offline since: 2018-11-14 09:19:03 UTC

LFLY 132100Z AUTO 00000KT 6000 FEW041 OVC054 M00/M03 Q1012 TEMPO -FZDZ BECMG BKN010 OVC040

Lyon-Bron Tower: 118.100

Lyon FIS
Bron, France

Feed Status: DOWN
Offline since: 2018-11-14 09:19:03 UTC

LFLL 132100Z 00000KT 6000 FEW035 OVC053 M01/M02 Q1012 NOSIG

Lyon FIS: 135.200

LFMD Ground/Tower (Archives)
Cannes, France

Feed Status: UP
Listen in your browser - HTML5 player(in browser, HTML5)
Listen right in your browser(in browser, requires Flash)
Click here to listen with your own player(launches your MP3 player)

LFMD 132100Z AUTO VRB03KT 9999 OVC074 09/00 Q1010

LFMD Flight Activity (Flightaware)

Listeners: 0 out of 1452 total

Cannes Ground: 121.800
Cannes Tower: 118.625

LFMN Approach (Archives)
Nice, France

Feed Status: UP
Listen in your browser - HTML5 player(in browser, HTML5)
Listen right in your browser(in browser, requires Flash)
Click here to listen with your own player(launches your MP3 player)

LFMN 132100Z 36007KT 310V050 9999 BKN090 08/03 Q1010 NOSIG

LFMN Flight Activity (Flightaware)

Listeners: 1 out of 1452 total

Nice Approach: 124.175

LFMN Control (High) (Archives)
Nice, France

Feed Status: UP
Listen in your browser - HTML5 player(in browser, HTML5)
Listen right in your browser(in browser, requires Flash)
Click here to listen with your own player(launches your MP3 player)

LFMN 132100Z 36007KT 310V050 9999 BKN090 08/03 Q1010 NOSIG

LFMN Flight Activity (Flightaware)

Listeners: 1 out of 1452 total

Marseille Control Sector K1 (FL245-FL305): 126.780

LFMN FIS/Approach (Archives)
Nice, France

Feed Status: UP
Listen in your browser - HTML5 player(in browser, HTML5)
Listen right in your browser(in browser, requires Flash)
Click here to listen with your own player(launches your MP3 player)

LFMN 132100Z 36007KT 310V050 9999 BKN090 08/03 Q1010 NOSIG

LFMN Flight Activity (Flightaware)

Listeners: 0 out of 1452 total

Nice FIS/Approach (TMA4 NICE 2500ft - FL115): 120.850

LFMN Ground/Tower (Archives)
Nice, France

Feed Status: UP
Listen in your browser - HTML5 player(in browser, HTML5)
Listen right in your browser(in browser, requires Flash)
Click here to listen with your own player(launches your MP3 player)

LFMN 132100Z 36007KT 310V050 9999 BKN090 08/03 Q1010 NOSIG

LFMN Flight Activity (Flightaware)

Listeners: 0 out of 1452 total

Nice Ground: 121.700
Nice Tower: 118.700

LFPO Approach (Archives)
Paris, France

Feed Status: UP
Listen in your browser - HTML5 player(in browser, HTML5)
Listen right in your browser(in browser, requires Flash)
Click here to listen with your own player(launches your MP3 player)

LFPO 132100Z 05009KT CAVOK M00/M04 Q1016 NOSIG

LFPO Flight Activity (Flightaware)

Listeners: 3 out of 1452 total

Orly Approach: 124.450
Orly Approach: 118.850
Orly Approach: 120.850
Orly Approach: 123.875

LFPO Departure (Archives)
Paris, France

Feed Status: UP
Listen in your browser - HTML5 player(in browser, HTML5)
Listen right in your browser(in browser, requires Flash)
Click here to listen with your own player(launches your MP3 player)

LFPO 132100Z 05009KT CAVOK M00/M04 Q1016 NOSIG

LFPO Flight Activity (Flightaware)

Listeners: 2 out of 1452 total

Orly Departure: 127.750

LFPO Tower (Archives)
Paris, France

Feed Status: UP
Listen in your browser - HTML5 player(in browser, HTML5)
Listen right in your browser(in browser, requires Flash)
Click here to listen with your own player(launches your MP3 player)

LFPO 132100Z 05009KT CAVOK M00/M04 Q1016 NOSIG

LFPO Flight Activity (Flightaware)

Listeners: 1 out of 1452 total

Orly Tower: 120.500
Orly Tower: 118.700

LFSB Tower (Archives)
Basel, Switzerland

Feed Status: UP
Listen in your browser - HTML5 player(in browser, HTML5)
Listen right in your browser(in browser, requires Flash)
Click here to listen with your own player(launches your MP3 player)

LFSB 132100Z 32006KT 9999 FEW008 BKN033 BKN056 M01/M02 Q1013 NOSIG

LFSB Flight Activity (Flightaware)

Listeners: 0 out of 1452 total

Mulhouse Tower: 118.300

LFST Approach #1
Strasbourg, France

Feed Status: DOWN
Offline since: 2018-11-17 10:00:07 UTC

LFST 132100Z AUTO 04011KT 9999 FEW013 OVC060 01/M03 Q1016 NOSIG

Strasbourg Approach: 120.700

LFST Approach #2
Strasbourg, France

Feed Status: DOWN
Offline since: 2018-11-17 10:00:07 UTC

LFST 132100Z AUTO 04011KT 9999 FEW013 OVC060 01/M03 Q1016 NOSIG

Strasbourg Approach: 119.575

LFST Emergency/Guard
Strasbourg, France

Feed Status: DOWN
Offline since: 2018-11-17 10:00:07 UTC

LFST 132100Z AUTO 04011KT 9999 FEW013 OVC060 01/M03 Q1016 NOSIG

Emergency/Guard: 121.500

LFST Ground
Strasbourg, France

Feed Status: DOWN
Offline since: 2018-11-17 10:00:07 UTC

LFST 132100Z AUTO 04011KT 9999 FEW013 OVC060 01/M03 Q1016 NOSIG

Strasbourg Ground: 121.800

LFST Tower
Strasbourg, France

Feed Status: DOWN
Offline since: 2018-11-17 10:00:07 UTC

LFST 132100Z AUTO 04011KT 9999 FEW013 OVC060 01/M03 Q1016 NOSIG

Strasbourg Tower: 119.250

LGAV App/Radar (Archives)
Athens, Greece

Feed Status: UP
Listen in your browser - HTML5 player(in browser, HTML5)
Listen right in your browser(in browser, requires Flash)
Click here to listen with your own player(launches your MP3 player)

LGAV 132120Z 28004KT 9999 BKN030 BKN070 06/05 Q1018 NOSIG

LGAV Flight Activity (Flightaware)

Listeners: 0 out of 1452 total

Athens Approach: 132.975
Athens Information: 130.925
Athens Information: 119.750
Athens Radar (Kerkira-Kefalinia-Paleohora Sectors FL460-FL345): 134.325
Athens Radar (Milos/Sitia Sectors FL460-FL345): 125.200
Athens Radar (Paleohora /Kerkira Sectors FL460-FL345): 133.725
Athens Radar (Paleohora Sector FL460-FL345): 124.625
Athens Radar (Rhodos/Kavos Sector FL460-FL345): 133.325
Emergency/Guard: 121.500
Makedonia Radar (Thessaloniki/Skopelos/Limnos/Kavala Sectors FL460-FL345): 133.575

LGIR Approach (Archives)
Iraklion, Greece

Feed Status: UP
Listen in your browser - HTML5 player(in browser, HTML5)
Listen right in your browser(in browser, requires Flash)
Click here to listen with your own player(launches your MP3 player)

LGIR 132120Z VRB03KT 9999 FEW020 BKN080 14/14 Q1018 NOSIG

LGIR Flight Activity (Flightaware)

Listeners: 1 out of 1452 total

Iraklion Radar: 123.975

LGIR Ground (Archives)
Iraklion, Greece

Feed Status: UP
Listen in your browser - HTML5 player(in browser, HTML5)
Listen right in your browser(in browser, requires Flash)
Click here to listen with your own player(launches your MP3 player)

LGIR 132120Z VRB03KT 9999 FEW020 BKN080 14/14 Q1018 NOSIG

LGIR Flight Activity (Flightaware)

Listeners: 1 out of 1452 total

Heraklion Ground: 121.700

LGIR Tower (Archives)
Iraklion, Greece

Feed Status: UP
Listen in your browser - HTML5 player(in browser, HTML5)
Listen right in your browser(in browser, requires Flash)
Click here to listen with your own player(launches your MP3 player)

LGIR 132120Z VRB03KT 9999 FEW020 BKN080 14/14 Q1018 NOSIG

LGIR Flight Activity (Flightaware)

Listeners: 2 out of 1452 total

Heraklion Tower: 120.850

LHBP Approach (Archives)
Budapest, Hungary

Feed Status: UP
Listen in your browser - HTML5 player(in browser, HTML5)
Listen right in your browser(in browser, requires Flash)
Click here to listen with your own player(launches your MP3 player)

LHBP 132100Z 31004KT 0450 R31L/0750N R31R/0900N FZFG VV002 M04/M04 Q1022 NOSIG

LHBP Flight Activity (Flightaware)

Listeners: 1 out of 1452 total

Budapest Approach: 129.700
Budapest Approach: 122.975
Budapest Approach (Upper): 123.860

LHBP ATIS (Archives)
Budapest, Hungary

Feed Status: UP
Listen in your browser - HTML5 player(in browser, HTML5)
Listen right in your browser(in browser, requires Flash)
Click here to listen with your own player(launches your MP3 player)

LHBP 132100Z 31004KT 0450 R31L/0750N R31R/0900N FZFG VV002 M04/M04 Q1022 NOSIG

LHBP Flight Activity (Flightaware)

Listeners: 0 out of 1452 total

Budapest ATIS: 132.375

LHBP Clearance Delivery (Archives)
Budapest, Hungary

Feed Status: UP
Listen in your browser - HTML5 player(in browser, HTML5)
Listen right in your browser(in browser, requires Flash)
Click here to listen with your own player(launches your MP3 player)

LHBP 132100Z 31004KT 0450 R31L/0750N R31R/0900N FZFG VV002 M04/M04 Q1022 NOSIG

LHBP Flight Activity (Flightaware)

Listeners: 0 out of 1452 total

Budapest Clearance Delivery: 134.550

LHBP Ground (Archives)
Budapest, Hungary

Feed Status: UP
Listen in your browser - HTML5 player(in browser, HTML5)
Listen right in your browser(in browser, requires Flash)
Click here to listen with your own player(launches your MP3 player)

LHBP 132100Z 31004KT 0450 R31L/0750N R31R/0900N FZFG VV002 M04/M04 Q1022 NOSIG

LHBP Flight Activity (Flightaware)

Listeners: 0 out of 1452 total

Budapest Ground: 121.900

LHBP Info (Archives)
Budapest, Hungary

Feed Status: UP
Listen in your browser - HTML5 player(in browser, HTML5)
Listen right in your browser(in browser, requires Flash)
Click here to listen with your own player(launches your MP3 player)

LHBP 132100Z 31004KT 0450 R31L/0750N R31R/0900N FZFG VV002 M04/M04 Q1022 NOSIG

LHBP Flight Activity (Flightaware)

Listeners: 0 out of 1452 total

Budapest Info: 119.350

LHBP Tower (Archives)
Budapest, Hungary

Feed Status: UP
Listen in your browser - HTML5 player(in browser, HTML5)
Listen right in your browser(in browser, requires Flash)
Click here to listen with your own player(launches your MP3 player)

LHBP 132100Z 31004KT 0450 R31L/0750N R31R/0900N FZFG VV002 M04/M04 Q1022 NOSIG

LHBP Flight Activity (Flightaware)

Listeners: 0 out of 1452 total

Budapest Tower: 118.100

LHBP Twr/Info (Archives)
Budapest, Hungary

Feed Status: UP
Listen in your browser - HTML5 player(in browser, HTML5)
Listen right in your browser(in browser, requires Flash)
Click here to listen with your own player(launches your MP3 player)

LHBP 132100Z 31004KT 0450 R31L/0750N R31R/0900N FZFG VV002 M04/M04 Q1022 NOSIG

LHBP Flight Activity (Flightaware)

Listeners: 0 out of 1452 total

Budapest Info: 119.350
Budapest Tower: 118.100

LHCC Control (East/West) (Archives)
Budapest, Hungary

Feed Status: UP
Listen in your browser - HTML5 player(in browser, HTML5)
Listen right in your browser(in browser, requires Flash)
Click here to listen with your own player(launches your MP3 player)

LHBP 132100Z 31004KT 0450 R31L/0750N R31R/0900N FZFG VV002 M04/M04 Q1022 NOSIG

LHBP Flight Activity (Flightaware)

Listeners: 2 out of 1452 total

Budapest Control (East Low Sector): 120.375
Budapest Control (West Low Sector): 133.200

LHDC Info/Tower (Archives)
Debrecen, Hungary

Feed Status: UP
Listen in your browser - HTML5 player(in browser, HTML5)
Listen right in your browser(in browser, requires Flash)
Click here to listen with your own player(launches your MP3 player)

LHDC 132045Z 25001KT 1200 BR OVC030 M02/M03 Q1023

LHDC Flight Activity (Flightaware)

Listeners: 0 out of 1452 total

Debrecen Info/Tower: 125.900

Dunaujvaros Airport CTAF (Archives)
Dunaujvaros, Hungary

Feed Status: UP
Listen in your browser - HTML5 player(in browser, HTML5)
Listen right in your browser(in browser, requires Flash)
Click here to listen with your own player(launches your MP3 player)

LHDV Flight Activity (Flightaware)

Listeners: 0 out of 1452 total

Dunaujvaros CTAF: 130.800

LHEM CTAF (Archives)
Esztergom, Hungary

Feed Status: UP
Listen in your browser - HTML5 player(in browser, HTML5)
Listen right in your browser(in browser, requires Flash)
Click here to listen with your own player(launches your MP3 player)

LHEM Flight Activity (Flightaware)

Listeners: 0 out of 1452 total

Esztergom CTAF: 126.850

LHPR Info/AFIS (Archives)
Gyor, Hungary

Feed Status: UP
Listen in your browser - HTML5 player(in browser, HTML5)
Listen right in your browser(in browser, requires Flash)
Click here to listen with your own player(launches your MP3 player)

LHPR 132045Z AUTO 09005KT 020V130 5000 BR OVC002 M02/M02 Q1022 RMK AMB

LHPR Flight Activity (Flightaware)

Listeners: 1 out of 1452 total

Gyor AFIS: 129.910

LJLJ Radar (Archives)
Ljubljana, Slovenia

Feed Status: UP
Listen in your browser - HTML5 player(in browser, HTML5)
Listen right in your browser(in browser, requires Flash)
Click here to listen with your own player(launches your MP3 player)

LJLJ 132100Z 29004KT 9999 -SN FEW010 SCT035 OVC075 M01/M02 Q1017 NOSIG

LJLJ Flight Activity (Flightaware)

Listeners: 2 out of 1452 total

Ljubljana Approach: 135.275

LJLJ Tower (Archives)
Ljubljana, Slovenia

Feed Status: UP
Listen in your browser - HTML5 player(in browser, HTML5)
Listen right in your browser(in browser, requires Flash)
Click here to listen with your own player(launches your MP3 player)

LJLJ 132100Z 29004KT 9999 -SN FEW010 SCT035 OVC075 M01/M02 Q1017 NOSIG

LJLJ Flight Activity (Flightaware)

Listeners: 1 out of 1452 total

Ljubljana Tower: 118.000

LJMB Info/FSS/FIC (Archives)
Maribor, Slovenia

Feed Status: UP
Listen in your browser - HTML5 player(in browser, HTML5)
Listen right in your browser(in browser, requires Flash)
Click here to listen with your own player(launches your MP3 player)

LJMB 132100Z 36005KT 9999 OVC026 M00/M03 Q1019

LJMB Flight Activity (Flightaware)

Listeners: 0 out of 1452 total

Ljubljana Information FSS/FIC (Maribor Area): 118.475

LJMB Tower/Approach (Archives)
Maribor, Slovenia

Feed Status: UP
Listen in your browser - HTML5 player(in browser, HTML5)
Listen right in your browser(in browser, requires Flash)
Click here to listen with your own player(launches your MP3 player)

LJMB 132100Z 36005KT 9999 OVC026 M00/M03 Q1019

LJMB Flight Activity (Flightaware)

Listeners: 0 out of 1452 total

Maribor Tower/Approach: 119.200

LJPZ Tower
Secovlje, Slovenia

Feed Status: DOWN
Offline since: 2018-12-12 23:40:02 UTC

LJPZ 132100Z 08004KT 330V150 9999 OVC050 04/M02 Q1014

Portoroz Tower: 124.875

LKPM Tower (Archives)
Pribram, Czech Republic

Feed Status: UP
Listen in your browser - HTML5 player(in browser, HTML5)
Listen right in your browser(in browser, requires Flash)
Click here to listen with your own player(launches your MP3 player)

METAR NOT AVAILABLE

LKPM Flight Activity (Flightaware)

Listeners: 0 out of 1452 total

Pribram Tower: 118.750

LKAA FIR (High) (Archives)
Prague, Czech Republic

Feed Status: UP
Listen in your browser - HTML5 player(in browser, HTML5)
Listen right in your browser(in browser, requires Flash)
Click here to listen with your own player(launches your MP3 player)

LKAA Flight Activity (Flightaware)

Listeners: 1 out of 1452 total

LKAA FIR Sector West High / Praha Radar : 132.065

LKAA FIR (Low) (Archives)
Prague, Czech Republic

Feed Status: UP
Listen in your browser - HTML5 player(in browser, HTML5)
Listen right in your browser(in browser, requires Flash)
Click here to listen with your own player(launches your MP3 player)

LKAA Flight Activity (Flightaware)

Listeners: 0 out of 1452 total

LKAA FIR Sector West Low / Praha Radar: 120.275

LKPR Approach (Archives)
Prague, Czech Republic

Feed Status: UP
Listen in your browser - HTML5 player(in browser, HTML5)
Listen right in your browser(in browser, requires Flash)
Click here to listen with your own player(launches your MP3 player)

LKPR 132124Z 13006KT 9999 SCT011 SCT015 M04/M06 Q1020 RMK REG QNH 1015

LKPR Flight Activity (Flightaware)

Listeners: 2 out of 1452 total

Prague Approach/Radar: 127.580

LKPR Clearance Del (Archives)
Prague, Czech Republic

Feed Status: UP
Listen in your browser - HTML5 player(in browser, HTML5)
Listen right in your browser(in browser, requires Flash)
Click here to listen with your own player(launches your MP3 player)

LKPR 132124Z 13006KT 9999 SCT011 SCT015 M04/M06 Q1020 RMK REG QNH 1015

LKPR Flight Activity (Flightaware)

Listeners: 0 out of 1452 total


LKPR Director/Ruzyne Radar (Archives)
Prague, Czech Republic

Feed Status: UP
Listen in your browser - HTML5 player(in browser, HTML5)
Listen right in your browser(in browser, requires Flash)
Click here to listen with your own player(launches your MP3 player)

LKPR 132124Z 13006KT 9999 SCT011 SCT015 M04/M06 Q1020 RMK REG QNH 1015

LKPR Flight Activity (Flightaware)

Listeners: 0 out of 1452 total

Prague Director/Ruzyne Radar: 119.010

NOTE: Only active during peak times, typically 2-6PM local time (CET)

LKPR Ground (Archives)
Prague, Czech Republic

Feed Status: UP
Listen in your browser - HTML5 player(in browser, HTML5)
Listen right in your browser(in browser, requires Flash)
Click here to listen with your own player(launches your MP3 player)

LKPR 132124Z 13006KT 9999 SCT011 SCT015 M04/M06 Q1020 RMK REG QNH 1015

LKPR Flight Activity (Flightaware)

Listeners: 1 out of 1452 total

Prague/Ruzyne Clearance Delivery: 120.060
Prague/Ruzyne Ground: 121.910

LKPR Tower (Archives)
Prague, Czech Republic

Feed Status: UP
Listen in your browser - HTML5 player(in browser, HTML5)
Listen right in your browser(in browser, requires Flash)
Click here to listen with your own player(launches your MP3 player)

LKPR 132124Z 13006KT 9999 SCT011 SCT015 M04/M06 Q1020 RMK REG QNH 1015

LKPR Flight Activity (Flightaware)

Listeners: 4 out of 1452 total

Prague/Ruzyne Tower: 134.560

LKTB Gnd/Twr/Radar (Archives)
Brno, Czech Republic

Feed Status: UP
Listen in your browser - HTML5 player(in browser, HTML5)
Listen right in your browser(in browser, requires Flash)
Click here to listen with your own player(launches your MP3 player)

LKTB 132100Z 07005KT 8000 SCT027 M03/M04 Q1021 R27/25//95 NOSIG

LKTB Flight Activity (Flightaware)

Listeners: 1 out of 1452 total

Brno Ground: 125.425
Brno Handling: 131.800
Brno Radar (Approach): 127.350
Brno Tower: 119.600

LMML Del/Gnd/Twr/App
Luqa, Malta

Feed Status: DOWN
Offline since: 2018-12-13 10:18:03 UTC

LMML 132115Z 23009KT 9999 FEW027 16/10 Q1014 NOSIG

Luqa Approach: 128.150
Luqa Approach/Radar: 118.350
Luqa Ground: 121.600
Luqa Tower: 135.100

LOWG Approach (Archives)
Graz, Austria

Feed Status: UP
Listen in your browser - HTML5 player(in browser, HTML5)
Listen right in your browser(in browser, requires Flash)
Click here to listen with your own player(launches your MP3 player)

LOWG 132120Z AUTO 08003KT 9999 FEW020 BKN022 M01/M04 Q1019 R17/19//95 NOSIG

LOWG Flight Activity (Flightaware)

Listeners: 0 out of 1452 total

Graz Approach: 119.300

LOWG Tower (Archives)
Graz, Austria

Feed Status: UP
Listen in your browser - HTML5 player(in browser, HTML5)
Listen right in your browser(in browser, requires Flash)
Click here to listen with your own player(launches your MP3 player)

LOWG 132120Z AUTO 08003KT 9999 FEW020 BKN022 M01/M04 Q1019 R17/19//95 NOSIG

LOWG Flight Activity (Flightaware)

Listeners: 0 out of 1452 total

Graz Tower: 118.200

LOWG Twr/App (Archives)
Graz, Austria

Feed Status: UP
Listen in your browser - HTML5 player(in browser, HTML5)
Listen right in your browser(in browser, requires Flash)
Click here to listen with your own player(launches your MP3 player)

LOWG 132120Z AUTO 08003KT 9999 FEW020 BKN022 M01/M04 Q1019 R17/19//95 NOSIG

LOWG Flight Activity (Flightaware)

Listeners: 0 out of 1452 total

Graz Approach: 119.300
Graz Tower: 118.200

Santa Maria Control (Oceanic) (Archives)
Santa Maria Island (Azores), Portugal

Feed Status: UP
Listen in your browser - HTML5 player(in browser, HTML5)
Listen right in your browser(in browser, requires Flash)
Click here to listen with your own player(launches your MP3 player)

LPAZ 132100Z 21009KT 9999 BKN002 BKN017 18/18 Q1025

LPAZ Flight Activity (Flightaware)

Listeners: 2 out of 1452 total

Emergency/Guard: 121.500
LPHR (Horta) Approach: 120.600
LPLA (Terceira) Approach: 135.000
LPLA (Terceira) Tower: 122.100
LPPD (Ponta Delgada) Approach: 119.400
Ponta Delgada Ground: 131.600
Santa Maria Approach: 119.100
Santa Maria Control: 132.150

LPCS Ground (Archives)
Cascais, Portugal

Feed Status: UP
Listen in your browser - HTML5 player(in browser, HTML5)
Listen right in your browser(in browser, requires Flash)
Click here to listen with your own player(launches your MP3 player)

LPCS 132030Z 33008KT 300V360 9999 FEW015 SCT030 12/07 Q1023

LPCS Flight Activity (Flightaware)

Listeners: 0 out of 1452 total

Cascais Ground: 121.850

LPCS Tower (Archives)
Cascais, Portugal

Feed Status: UP
Listen in your browser - HTML5 player(in browser, HTML5)
Listen right in your browser(in browser, requires Flash)
Click here to listen with your own player(launches your MP3 player)

LPCS 132030Z 33008KT 300V360 9999 FEW015 SCT030 12/07 Q1023

LPCS Flight Activity (Flightaware)

Listeners: 0 out of 1452 total

Cascais Tower: 120.300

LPLA Gnd/Twr/App (Archives)
Lajes, Portugal

Feed Status: UP
Listen in your browser - HTML5 player(in browser, HTML5)
Listen right in your browser(in browser, requires Flash)
Click here to listen with your own player(launches your MP3 player)

LPLA 132100Z /////KT 9999 FEW006 SCT012 BKN018 19/18 Q1020

LPLA Flight Activity (Flightaware)

Listeners: 1 out of 1452 total

Lajes Approach: 135.000
Lajes Ground: 121.900
Lajes Tower: 122.100

LPPT Approach
Lisbon, Portugal

Feed Status: DOWN
Offline since: 2018-12-13 13:44:02 UTC

LPPT 132100Z 31004KT 9999 FEW025 FEW030TCU 10/07 Q1023

Lisbon Approach: 119.100

LRCL Twr/App #1 (Archives)
Cluj-Napoca, Romania

Feed Status: UP
Listen in your browser - HTML5 player(in browser, HTML5)
Listen right in your browser(in browser, requires Flash)
Click here to listen with your own player(launches your MP3 player)

LRCL 132100Z 31005KT 280V340 9999 OVC022 01/M05 Q1020

LRCL Flight Activity (Flightaware)

Listeners: 1 out of 1452 total

Cluj Approach: 126.425
Cluj Tower: 134.400

LRCL Twr/App #2 (Archives)
Cluj-Napoca, Romania

Feed Status: UP
Listen in your browser - HTML5 player(in browser, HTML5)
Listen right in your browser(in browser, requires Flash)
Click here to listen with your own player(launches your MP3 player)

LRCL 132100Z 31005KT 280V340 9999 OVC022 01/M05 Q1020

LRCL Flight Activity (Flightaware)

Listeners: 0 out of 1452 total

Cluj Approach: 126.425
Cluj Tower: 134.400

LRCL Twr/App/ACC
Cluj-Napoca, Romania

Feed Status: DOWN
Offline since: 2018-12-13 13:47:03 UTC

LRCL 132100Z 31005KT 280V340 9999 OVC022 01/M05 Q1020

Cluj Approach: 126.425
Cluj Tower: 134.400
Napoc ACC: 127.075

LROP Bucharest Ground (Archives)
Bucharest, Romania

Feed Status: UP
Listen in your browser - HTML5 player(in browser, HTML5)
Listen right in your browser(in browser, requires Flash)
Click here to listen with your own player(launches your MP3 player)

LROP 132100Z 26004KT 0300 R08R/0750N R26L/0600N R08L/0900U R26R/0750N FZFG VV001 M04/M04 Q1019 R88/19//95 NOSIG

LROP Flight Activity (Flightaware)

Listeners: 1 out of 1452 total

Bucharest Ground: 121.700

LROP Bucharest Twr/App (Archives)
Bucharest, Romania

Feed Status: UP
Listen in your browser - HTML5 player(in browser, HTML5)
Listen right in your browser(in browser, requires Flash)
Click here to listen with your own player(launches your MP3 player)

LROP 132100Z 26004KT 0300 R08R/0750N R26L/0600N R08L/0900U R26R/0750N FZFG VV001 M04/M04 Q1019 R88/19//95 NOSIG

LROP Flight Activity (Flightaware)

Listeners: 6 out of 1452 total

Bucharest Approach: 118.250
Bucharest Approach (alternate): 120.600
Bucharest Radar (alternate): 126.725
Bucharest Radar (Arges Mid sector): 121.175
Bucharest Radar (Arges Top Sector): 123.265
Bucharest Radar (Koman Mid Sector): 124.975
Bucharest Radar (Koman Top Sector): 123.900
Bucharest Radar (Nerdi Mid Sector): 125.150
Bucharest Radar (Nerdi Top Sector): 122.025
Bucharest Tower: 120.900
Bucharest Tower (alternate): 121.850

Note: Bucharest Radar on right stereo channel and Bucharest Tower/Approach on left stereo channel.

LRSB Tower/CTAF (Archives)
Sibiu, Romania

Feed Status: UP
Listen in your browser - HTML5 player(in browser, HTML5)
Listen right in your browser(in browser, requires Flash)
Click here to listen with your own player(launches your MP3 player)

LRSB 132100Z 24006KT CAVOK M06/M08 Q1019

LRSB Flight Activity (Flightaware)

Listeners: 0 out of 1452 total

Sibiu Tower: 122.700

LRTR Tower (Archives)
Timisoara, Romania

Feed Status: UP
Listen in your browser - HTML5 player(in browser, HTML5)
Listen right in your browser(in browser, requires Flash)
Click here to listen with your own player(launches your MP3 player)

LRTR 132100Z 04005KT CAVOK M03/M03 Q1020 NOSIG

LRTR Flight Activity (Flightaware)

Listeners: 0 out of 1452 total

ARAD Approach: 127.250
Timisoara Tower: 120.100

LSGG App/Radar (Archives)
Geneva, Switzerland

Feed Status: UP
Listen in your browser - HTML5 player(in browser, HTML5)
Listen right in your browser(in browser, requires Flash)
Click here to listen with your own player(launches your MP3 player)

LSGG 132120Z 01004KT 330V050 9999 FEW035 BKN055 02/M04 Q1012 NOSIG

LSGG Flight Activity (Flightaware)

Listeners: 2 out of 1452 total

Geneva Arrival: 136.250
Swiss Radar (L2 - FL290-FL310): 126.050

LSGG Approach (Archives)
Geneva, Switzerland

Feed Status: UP
Listen in your browser - HTML5 player(in browser, HTML5)
Listen right in your browser(in browser, requires Flash)
Click here to listen with your own player(launches your MP3 player)

LSGG 132120Z 01004KT 330V050 9999 FEW035 BKN055 02/M04 Q1012 NOSIG

LSGG Flight Activity (Flightaware)

Listeners: 1 out of 1452 total

Geneva Arrival: 136.250

LSGG Radar (Archives)
Geneva, Switzerland

Feed Status: UP
Listen in your browser - HTML5 player(in browser, HTML5)
Listen right in your browser(in browser, requires Flash)
Click here to listen with your own player(launches your MP3 player)

LSGG 132120Z 01004KT 330V050 9999 FEW035 BKN055 02/M04 Q1012 NOSIG

LSGG Flight Activity (Flightaware)

Listeners: 0 out of 1452 total

Swiss Radar (L2 - FL290-FL310): 126.050

LSGG Tower (Archives)
Geneva, Switzerland

Feed Status: UP
Listen in your browser - HTML5 player(in browser, HTML5)
Listen right in your browser(in browser, requires Flash)
Click here to listen with your own player(launches your MP3 player)

LSGG 132120Z 01004KT 330V050 9999 FEW035 BKN055 02/M04 Q1012 NOSIG

LSGG Flight Activity (Flightaware)

Listeners: 0 out of 1452 total

Geneva Tower: 118.700

LSGS Gnd/Twr/App (Archives)
Sion, Switzerland

Feed Status: UP
Listen in your browser - HTML5 player(in browser, HTML5)
Listen right in your browser(in browser, requires Flash)
Click here to listen with your own player(launches your MP3 player)

LSGS 132120Z AUTO 12003KT 9999 BKN070 SCT090 01/M10 Q1012

LSGS Flight Activity (Flightaware)

Listeners: 0 out of 1452 total

Alpine Jet Service Handling: 131.675
Sion Airport Handling: 131.475
Sion Approach (IFR ARR MIL OFF): 126.825
Sion Ground: 121.700
Sion Tower: 118.275

LiveATC LSGS - About us

LSMD Tower (Archives)
Dubendorf, Switzerland

Feed Status: UP
Listen in your browser - HTML5 player(in browser, HTML5)
Listen right in your browser(in browser, requires Flash)
Click here to listen with your own player(launches your MP3 player)

LSZH 132120Z 05007KT 020V090 9999 -SN FEW040 SCT065 M01/M04 Q1013 R88/19//// NOSIG

LSZH Flight Activity (Flightaware)

Listeners: 0 out of 1452 total

Dubendorf Tower: 118.975

LSPM AFIS (Archives)
Ambri, Switzerland

Feed Status: UP
Listen in your browser - HTML5 player(in browser, HTML5)
Listen right in your browser(in browser, requires Flash)
Click here to listen with your own player(launches your MP3 player)

METAR NOT AVAILABLE

LSPM Flight Activity (Flightaware)

Listeners: 0 out of 1452 total

Ambri AFIS: 118.525

LSZA Tower (Archives)
Agno, Switzerland

Feed Status: UP
Listen in your browser - HTML5 player(in browser, HTML5)
Listen right in your browser(in browser, requires Flash)
Click here to listen with your own player(launches your MP3 player)

LSZA 132120Z AUTO VRB02KT 9999 SCT050 OVC090 02/M03 Q1016

LSZA Flight Activity (Flightaware)

Listeners: 1 out of 1452 total

Lugano Tower: 120.250

LSZB Tower/App/Dep (Archives)
Bern, Switzerland

Feed Status: UP
Listen in your browser - HTML5 player(in browser, HTML5)
Listen right in your browser(in browser, requires Flash)
Click here to listen with your own player(launches your MP3 player)

LSZB 132120Z AUTO 28003KT 9999 // OVC050 SCT080 M01/M03 Q1011

LSZB Flight Activity (Flightaware)

Listeners: 1 out of 1452 total

LSZB Arrival/Departure (left channel): 127.325
LSZB Tower (right channel): 121.025

LSZG Tower (Archives)
Grenchen, Switzerland

Feed Status: UP
Listen in your browser - HTML5 player(in browser, HTML5)
Listen right in your browser(in browser, requires Flash)
Click here to listen with your own player(launches your MP3 player)

LSZG 132120Z AUTO 07007KT CAVOK M00/M02 Q1013

LSZG Flight Activity (Flightaware)

Listeners: 0 out of 1452 total

Grenchen Tower: 120.100

LSZH Approach (East) (Archives)
Zurich, Switzerland

Feed Status: UP
Listen in your browser - HTML5 player(in browser, HTML5)
Listen right in your browser(in browser, requires Flash)
Click here to listen with your own player(launches your MP3 player)

LSZH 132120Z 05007KT 020V090 9999 -SN FEW040 SCT065 M01/M04 Q1013 R88/19//// NOSIG

LSZH Flight Activity (Flightaware)

Listeners: 1 out of 1452 total

Zurich Approach (East): 135.225

LSZH Approach (West) (Archives)
Zurich, Switzerland

Feed Status: UP
Listen in your browser - HTML5 player(in browser, HTML5)
Listen right in your browser(in browser, requires Flash)
Click here to listen with your own player(launches your MP3 player)

LSZH 132120Z 05007KT 020V090 9999 -SN FEW040 SCT065 M01/M04 Q1013 R88/19//// NOSIG

LSZH Flight Activity (Flightaware)

Listeners: 0 out of 1452 total

Zurich Approach (West): 118.000

LSZH Apron (South) (Archives)
Zurich, Switzerland

Feed Status: UP
Listen in your browser - HTML5 player(in browser, HTML5)
Listen right in your browser(in browser, requires Flash)
Click here to listen with your own player(launches your MP3 player)

LSZH 132120Z 05007KT 020V090 9999 -SN FEW040 SCT065 M01/M04 Q1013 R88/19//// NOSIG

LSZH Flight Activity (Flightaware)

Listeners: 1 out of 1452 total

Zurich Apron (South): 121.755

LSZH Apron (West) (Archives)
Zurich, Switzerland

Feed Status: UP
Listen in your browser - HTML5 player(in browser, HTML5)
Listen right in your browser(in browser, requires Flash)
Click here to listen with your own player(launches your MP3 player)

LSZH 132120Z 05007KT 020V090 9999 -SN FEW040 SCT065 M01/M04 Q1013 R88/19//// NOSIG

LSZH Flight Activity (Flightaware)

Listeners: 1 out of 1452 total

Zurich Apron (West): 121.855

LSZH Clearance Delivery (Archives)
Zurich, Switzerland

Feed Status: UP
Listen in your browser - HTML5 player(in browser, HTML5)
Listen right in your browser(in browser, requires Flash)
Click here to listen with your own player(launches your MP3 player)

LSZH 132120Z 05007KT 020V090 9999 -SN FEW040 SCT065 M01/M04 Q1013 R88/19//// NOSIG

LSZH Flight Activity (Flightaware)

Listeners: 0 out of 1452 total

Zurich Clearance Delivery: 121.925

LSZH Ground (Archives)
Zurich, Switzerland

Feed Status: UP
Listen in your browser - HTML5 player(in browser, HTML5)
Listen right in your browser(in browser, requires Flash)
Click here to listen with your own player(launches your MP3 player)

LSZH 132120Z 05007KT 020V090 9999 -SN FEW040 SCT065 M01/M04 Q1013 R88/19//// NOSIG

LSZH Flight Activity (Flightaware)

Listeners: 0 out of 1452 total

Zurich Ground: 121.905

LSZH Radar (Archives)
Zurich, Switzerland

Feed Status: UP
Listen in your browser - HTML5 player(in browser, HTML5)
Listen right in your browser(in browser, requires Flash)
Click here to listen with your own player(launches your MP3 player)

LSZH 132120Z 05007KT 020V090 9999 -SN FEW040 SCT065 M01/M04 Q1013 R88/19//// NOSIG

LSZH Flight Activity (Flightaware)

Listeners: 0 out of 1452 total

Zurich Radar ACC (-FL240 East): 133.900
Zurich Radar ACC (-FL240 North): 136.150
Zurich Radar ACC (-FL240 South): 128.050
Zurich Radar ACC (-FL240 West): 135.675
Zurich Radar ACC (FL250-280): 133.050
Zurich Radar ACC (FL290-320): 132.815
Zurich Radar ACC (FL330-350): 134.600
Zurich Radar ACC (FL360+): 133.400

LSZH Radar 132.815 (Archives)
Zurich, Switzerland

Feed Status: UP
Listen in your browser - HTML5 player(in browser, HTML5)
Listen right in your browser(in browser, requires Flash)
Click here to listen with your own player(launches your MP3 player)

LSZH 132120Z 05007KT 020V090 9999 -SN FEW040 SCT065 M01/M04 Q1013 R88/19//// NOSIG

LSZH Flight Activity (Flightaware)

Listeners: 0 out of 1452 total

Zurich Radar: 132.815

LSZH Radar 133.050 (Archives)
Zurich, Switzerland

Feed Status: UP
Listen in your browser - HTML5 player(in browser, HTML5)
Listen right in your browser(in browser, requires Flash)
Click here to listen with your own player(launches your MP3 player)

LSZH 132120Z 05007KT 020V090 9999 -SN FEW040 SCT065 M01/M04 Q1013 R88/19//// NOSIG

LSZH Flight Activity (Flightaware)

Listeners: 0 out of 1452 total

Zurich Radar: 133.050

LSZH Radar 133.400 (Archives)
Zurich, Switzerland

Feed Status: UP
Listen in your browser - HTML5 player(in browser, HTML5)
Listen right in your browser(in browser, requires Flash)
Click here to listen with your own player(launches your MP3 player)

LSZH 132120Z 05007KT 020V090 9999 -SN FEW040 SCT065 M01/M04 Q1013 R88/19//// NOSIG

LSZH Flight Activity (Flightaware)

Listeners: 0 out of 1452 total

Zurich Radar: 133.400

LSZH Radar 133.690 (Archives)
Zurich, Switzerland

Feed Status: UP
Listen in your browser - HTML5 player(in browser, HTML5)
Listen right in your browser(in browser, requires Flash)
Click here to listen with your own player(launches your MP3 player)

LSZH 132120Z 05007KT 020V090 9999 -SN FEW040 SCT065 M01/M04 Q1013 R88/19//// NOSIG

LSZH Flight Activity (Flightaware)

Listeners: 0 out of 1452 total

Zurich Radar: 133.690

LSZH Radar 133.900 (Archives)
Zurich, Switzerland

Feed Status: UP
Listen in your browser - HTML5 player(in browser, HTML5)
Listen right in your browser(in browser, requires Flash)
Click here to listen with your own player(launches your MP3 player)

LSZH 132120Z 05007KT 020V090 9999 -SN FEW040 SCT065 M01/M04 Q1013 R88/19//// NOSIG

LSZH Flight Activity (Flightaware)

Listeners: 1 out of 1452 total

Zurich Radar (Below FL240 East): 133.900

LSZH Radar 134.600 (Archives)
Zurich, Switzerland

Feed Status: UP
Listen in your browser - HTML5 player(in browser, HTML5)
Listen right in your browser(in browser, requires Flash)
Click here to listen with your own player(launches your MP3 player)

LSZH 132120Z 05007KT 020V090 9999 -SN FEW040 SCT065 M01/M04 Q1013 R88/19//// NOSIG

LSZH Flight Activity (Flightaware)

Listeners: 0 out of 1452 total

Zurich Radar (FL330-350): 134.600

LSZH Radar 135.675 (Archives)
Zurich, Switzerland

Feed Status: UP
Listen in your browser - HTML5 player(in browser, HTML5)
Listen right in your browser(in browser, requires Flash)
Click here to listen with your own player(launches your MP3 player)

LSZH 132120Z 05007KT 020V090 9999 -SN FEW040 SCT065 M01/M04 Q1013 R88/19//// NOSIG

LSZH Flight Activity (Flightaware)

Listeners: 0 out of 1452 total


LSZH Radar 136.150 (Archives)
Zurich, Switzerland

Feed Status: UP
Listen in your browser - HTML5 player(in browser, HTML5)
Listen right in your browser(in browser, requires Flash)
Click here to listen with your own player(launches your MP3 player)

LSZH 132120Z 05007KT 020V090 9999 -SN FEW040 SCT065 M01/M04 Q1013 R88/19//// NOSIG

LSZH Flight Activity (Flightaware)

Listeners: 0 out of 1452 total

Zurich Radar (Below FL240 North): 136.150

LSZH Tower (Archives)
Zurich, Switzerland

Feed Status: UP
Listen in your browser - HTML5 player(in browser, HTML5)
Listen right in your browser(in browser, requires Flash)
Click here to listen with your own player(launches your MP3 player)

LSZH 132120Z 05007KT 020V090 9999 -SN FEW040 SCT065 M01/M04 Q1013 R88/19//// NOSIG

LSZH Flight Activity (Flightaware)

Listeners: 10 out of 1452 total

Zurich Tower: 118.100

LSZH Tower #3 (Archives)
Zurich, Switzerland

Feed Status: UP
Listen in your browser - HTML5 player(in browser, HTML5)
Listen right in your browser(in browser, requires Flash)
Click here to listen with your own player(launches your MP3 player)

LSZH 132120Z 05007KT 020V090 9999 -SN FEW040 SCT065 M01/M04 Q1013 R88/19//// NOSIG

LSZH Flight Activity (Flightaware)

Listeners: 4 out of 1452 total

Zurich Tower: 118.100

LSZH Tower (14/32) (Archives)
Zurich, Switzerland

Feed Status: UP
Listen in your browser - HTML5 player(in browser, HTML5)
Listen right in your browser(in browser, requires Flash)
Click here to listen with your own player(launches your MP3 player)

LSZH 132120Z 05007KT 020V090 9999 -SN FEW040 SCT065 M01/M04 Q1013 R88/19//// NOSIG

LSZH Flight Activity (Flightaware)

Listeners: 0 out of 1452 total

Zurich Tower (Rwy 14 App/32 Takeoff): 120.225

LSZH Twr/Gnd (backup) (Archives)
Zurich, Switzerland

Feed Status: UP
Listen in your browser - HTML5 player(in browser, HTML5)
Listen right in your browser(in browser, requires Flash)
Click here to listen with your own player(launches your MP3 player)

LSZH 132120Z 05007KT 020V090 9999 -SN FEW040 SCT065 M01/M04 Q1013 R88/19//// NOSIG

LSZH Flight Activity (Flightaware)

Listeners: 0 out of 1452 total

Zurich Twr/Gnd (backup): 119.700

LSZL Tower (Archives)
Locarno, Switzerland

Feed Status: UP
Listen in your browser - HTML5 player(in browser, HTML5)
Listen right in your browser(in browser, requires Flash)
Click here to listen with your own player(launches your MP3 player)

LSZL Flight Activity (Flightaware)

Listeners: 1 out of 1452 total


LSZR Tower (Archives)
Altenrhein, Switzerland

Feed Status: UP
Listen in your browser - HTML5 player(in browser, HTML5)
Listen right in your browser(in browser, requires Flash)
Click here to listen with your own player(launches your MP3 player)

LSZR 132120Z AUTO VRB02KT CAVOK M02/M06 Q1013

LSZR Flight Activity (Flightaware)

Listeners: 1 out of 1452 total

Altenrhein Tower: 135.425

LSZW CTAF (Archives)
Thun, Switzerland

Feed Status: UP
Listen in your browser - HTML5 player(in browser, HTML5)
Listen right in your browser(in browser, requires Flash)
Click here to listen with your own player(launches your MP3 player)

LSZW Flight Activity (Flightaware)

Listeners: 0 out of 1452 total

Thun CTAF/Info: 123.250

LTFJ Del/Gnd/Twr #1 (Archives)
Istanbul, Turkey

Feed Status: UP
Listen in your browser - HTML5 player(in browser, HTML5)
Listen right in your browser(in browser, requires Flash)
Click here to listen with your own player(launches your MP3 player)

LTFJ 132120Z 17001KT CAVOK 04/00 Q1021 NOSIG

LTFJ Flight Activity (Flightaware)

Listeners: 1 out of 1452 total

Gokcen Clearance Delivery: 122.625
Gokcen Ground: 121.750
Gokcen Tower: 118.800

LTFJ Del/Gnd/Twr #2 (Archives)
Istanbul, Turkey

Feed Status: UP
Listen in your browser - HTML5 player(in browser, HTML5)
Listen right in your browser(in browser, requires Flash)
Click here to listen with your own player(launches your MP3 player)

LTFJ 132120Z 17001KT CAVOK 04/00 Q1021 NOSIG

LTFJ Flight Activity (Flightaware)

Listeners: 0 out of 1452 total

Gokcen Clearance Delivery: 122.625
Gokcen Ground: 121.750
Gokcen Tower: 118.800

LUKK ACC #1 (Archives)
Chisinau, Moldova

Feed Status: UP
Listen in your browser - HTML5 player(in browser, HTML5)
Listen right in your browser(in browser, requires Flash)
Click here to listen with your own player(launches your MP3 player)

LUKK 132100Z 29010KT 8000 -SN SCT014 OVC026 01/M00 Q1016 R26/290199 NOSIG

LUKK Flight Activity (Flightaware)

Listeners: 0 out of 1452 total

Chisinau ACC: 130.975

Runway 08 Blog

LUKK ACC #2 (Archives)
Chisinau, Moldova

Feed Status: UP
Listen in your browser - HTML5 player(in browser, HTML5)
Listen right in your browser(in browser, requires Flash)
Click here to listen with your own player(launches your MP3 player)

LUKK 132100Z 29010KT 8000 -SN SCT014 OVC026 01/M00 Q1016 R26/290199 NOSIG

LUKK Flight Activity (Flightaware)

Listeners: 0 out of 1452 total

Chisinau ACC: 128.975

Runway 08 Blog

LUKK Air to Air (Archives)
Chisinau, Moldova

Feed Status: UP
Listen in your browser - HTML5 player(in browser, HTML5)
Listen right in your browser(in browser, requires Flash)
Click here to listen with your own player(launches your MP3 player)

LUKK 132100Z 29010KT 8000 -SN SCT014 OVC026 01/M00 Q1016 R26/290199 NOSIG

LUKK Flight Activity (Flightaware)

Listeners: 0 out of 1452 total

Chisinau Air to Air: 123.450

Runway 08 Blog

LUKK Alternate (Archives)
Chisinau, Moldova

Feed Status: UP
Listen in your browser - HTML5 player(in browser, HTML5)
Listen right in your browser(in browser, requires Flash)
Click here to listen with your own player(launches your MP3 player)

LUKK 132100Z 29010KT 8000 -SN SCT014 OVC026 01/M00 Q1016 R26/290199 NOSIG

LUKK Flight Activity (Flightaware)

Listeners: 0 out of 1452 total

Chisinau Alternate: 129.725

LUKK Approach #1
Chisinau, Moldova

Feed Status: DOWN
Offline since: 2018-12-12 16:07:02 UTC

LUKK 132100Z 29010KT 8000 -SN SCT014 OVC026 01/M00 Q1016 R26/290199 NOSIG

Chisinau Approach: 133.300

LUKK Approach #2 (Archives)
Chisinau, Moldova

Feed Status: UP
Listen in your browser - HTML5 player(in browser, HTML5)
Listen right in your browser(in browser, requires Flash)
Click here to listen with your own player(launches your MP3 player)

LUKK 132100Z 29010KT 8000 -SN SCT014 OVC026 01/M00 Q1016 R26/290199 NOSIG

LUKK Flight Activity (Flightaware)

Listeners: 0 out of 1452 total

Chisinau Approach: 133.300

Runway 08 Blog

LUKK Control (Archives)
Chisinau, Moldova

Feed Status: UP
Listen in your browser - HTML5 player(in browser, HTML5)
Listen right in your browser(in browser, requires Flash)
Click here to listen with your own player(launches your MP3 player)

LUKK 132100Z 29010KT 8000 -SN SCT014 OVC026 01/M00 Q1016 R26/290199 NOSIG

LUKK Flight Activity (Flightaware)

Listeners: 0 out of 1452 total

Chisinau ACC: 128.975
Chisinau ACC: 130.975

LUKK Emergency/Guard (Archives)
Chisinau, Moldova

Feed Status: UP
Listen in your browser - HTML5 player(in browser, HTML5)
Listen right in your browser(in browser, requires Flash)
Click here to listen with your own player(launches your MP3 player)

LUKK 132100Z 29010KT 8000 -SN SCT014 OVC026 01/M00 Q1016 R26/290199 NOSIG

LUKK Flight Activity (Flightaware)

Listeners: 0 out of 1452 total

Emergency/Guard: 121.500

Runway 08 Blog

LUKK Ground #1 (Archives)
Chisinau, Moldova

Feed Status: UP
Listen in your browser - HTML5 player(in browser, HTML5)
Listen right in your browser(in browser, requires Flash)
Click here to listen with your own player(launches your MP3 player)

LUKK 132100Z 29010KT 8000 -SN SCT014 OVC026 01/M00 Q1016 R26/290199 NOSIG

LUKK Flight Activity (Flightaware)

Listeners: 0 out of 1452 total

Chisinau Ground: 121.800

LUKK Ground #2 (Archives)
Chisinau, Moldova

Feed Status: UP
Listen in your browser - HTML5 player(in browser, HTML5)
Listen right in your browser(in browser, requires Flash)
Click here to listen with your own player(launches your MP3 player)

LUKK 132100Z 29010KT 8000 -SN SCT014 OVC026 01/M00 Q1016 R26/290199 NOSIG

LUKK Flight Activity (Flightaware)

Listeners: 0 out of 1452 total

Chisinau Ground: 121.800

Runway 08 Blog

LUKK Handling (Archives)
Chisinau, Moldova

Feed Status: UP
Listen in your browser - HTML5 player(in browser, HTML5)
Listen right in your browser(in browser, requires Flash)
Click here to listen with your own player(launches your MP3 player)

LUKK 132100Z 29010KT 8000 -SN SCT014 OVC026 01/M00 Q1016 R26/290199 NOSIG

LUKK Flight Activity (Flightaware)

Listeners: 0 out of 1452 total

Chisinau Handling: 131.700

Runway 08 Blog

LUKK Tower #1
Chisinau, Moldova

Feed Status: DOWN
Offline since: 2018-12-12 16:07:02 UTC

LUKK 132100Z 29010KT 8000 -SN SCT014 OVC026 01/M00 Q1016 R26/290199 NOSIG

Chisinau Tower: 118.100

LUKK Tower #2 (Archives)
Chisinau, Moldova

Feed Status: UP
Listen in your browser - HTML5 player(in browser, HTML5)
Listen right in your browser(in browser, requires Flash)
Click here to listen with your own player(launches your MP3 player)

LUKK 132100Z 29010KT 8000 -SN SCT014 OVC026 01/M00 Q1016 R26/290199 NOSIG

LUKK Flight Activity (Flightaware)

Listeners: 0 out of 1452 total

Chisinau Tower: 118.100

Runway 08 Blog

LWSK ACC (Lower) (Archives)
Petrovec, Macedonia, Republic of

Feed Status: UP
Listen in your browser - HTML5 player(in browser, HTML5)
Listen right in your browser(in browser, requires Flash)
Click here to listen with your own player(launches your MP3 player)

LWSK 132130Z 30003KT 9999 SCT040 OVC070 00/M02 Q1019 NOSIG

LWSK Flight Activity (Flightaware)

Listeners: 1 out of 1452 total

Skopje Control (Lower): 119.375

LWSK ACC (Upper) (Archives)
Petrovec, Macedonia, Republic of

Feed Status: UP
Listen in your browser - HTML5 player(in browser, HTML5)
Listen right in your browser(in browser, requires Flash)
Click here to listen with your own player(launches your MP3 player)

LWSK 132130Z 30003KT 9999 SCT040 OVC070 00/M02 Q1019 NOSIG

LWSK Flight Activity (Flightaware)

Listeners: 0 out of 1452 total

Skopje Control (Upper): 120.015

LWSK Approach (Archives)
Petrovec, Macedonia, Republic of

Feed Status: UP
Listen in your browser - HTML5 player(in browser, HTML5)
Listen right in your browser(in browser, requires Flash)
Click here to listen with your own player(launches your MP3 player)

LWSK 132130Z 30003KT 9999 SCT040 OVC070 00/M02 Q1019 NOSIG

LWSK Flight Activity (Flightaware)

Listeners: 0 out of 1452 total

Skopje Approach/Departure: 120.300

LWSK ATIS (Archives)
Petrovec, Macedonia, Republic of

Feed Status: UP
Listen in your browser - HTML5 player(in browser, HTML5)
Listen right in your browser(in browser, requires Flash)
Click here to listen with your own player(launches your MP3 player)

LWSK 132130Z 30003KT 9999 SCT040 OVC070 00/M02 Q1019 NOSIG

LWSK Flight Activity (Flightaware)

Listeners: 0 out of 1452 total

Skopje ATIS: 130.125

LWSK Tower (Archives)
Petrovec, Macedonia, Republic of

Feed Status: UP
Listen in your browser - HTML5 player(in browser, HTML5)
Listen right in your browser(in browser, requires Flash)
Click here to listen with your own player(launches your MP3 player)

LWSK 132130Z 30003KT 9999 SCT040 OVC070 00/M02 Q1019 NOSIG

LWSK Flight Activity (Flightaware)

Listeners: 0 out of 1452 total

Skopje Tower: 118.500

LZIB Del/Twr/App (Archives)
Bratislava, Slovakia

Feed Status: UP
Listen in your browser - HTML5 player(in browser, HTML5)
Listen right in your browser(in browser, requires Flash)
Click here to listen with your own player(launches your MP3 player)

LZIB 132100Z 09001KT 9000 SCT007 BKN011 M01/M02 Q1022

LZIB Flight Activity (Flightaware)

Listeners: 0 out of 1452 total

Stefanik Approach: 120.900
Stefanik Clearance Delivery: 118.975
Stefanik Tower: 118.300
Stefanik Tower (backup): 118.700

(c) LPS

LZKZ Gnd/Twr/App (Archives)
Kosice, Slovakia

Feed Status: UP
Listen in your browser - HTML5 player(in browser, HTML5)
Listen right in your browser(in browser, requires Flash)
Click here to listen with your own player(launches your MP3 player)

LZKZ 132100Z VRB01KT 9999 FEW027 BKN029 00/M03 Q1021

LZKZ Flight Activity (Flightaware)

Listeners: 0 out of 1452 total

Kosice Approach: 119.850
Kosice Ground: 121.700
Kosice Handling: 131.850
Kosice Tower: 120.400

LZPE CTAF/UNICOM (Archives)
Prievidza, Slovakia

Feed Status: UP
Listen in your browser - HTML5 player(in browser, HTML5)
Listen right in your browser(in browser, requires Flash)
Click here to listen with your own player(launches your MP3 player)

LZPE Flight Activity (Flightaware)

Listeners: 0 out of 1452 total

Prievidza CTAF/UNICOM: 123.055

LZPP Ground/Tower (Archives)
Piestany, Slovakia

Feed Status: UP
Listen in your browser - HTML5 player(in browser, HTML5)
Listen right in your browser(in browser, requires Flash)
Click here to listen with your own player(launches your MP3 player)

LZPP 132100Z AUTO 02004KT 6000 OVC010/// M02/M03 Q1022

LZPP Flight Activity (Flightaware)

Listeners: 0 out of 1452 total

Piestany Ground: 121.700
Piestany Tower: 118.575

LZPT CTAF (Archives)
Partizanske, Slovakia

Feed Status: UP
Listen in your browser - HTML5 player(in browser, HTML5)
Listen right in your browser(in browser, requires Flash)
Click here to listen with your own player(launches your MP3 player)

LZPT Flight Activity (Flightaware)

Listeners: 0 out of 1452 total

Male Bielice CTAF: 123.500

URKK Gnd/Twr/App (Archives)
Krasnodar, Russia

Feed Status: UP
Listen in your browser - HTML5 player(in browser, HTML5)
Listen right in your browser(in browser, requires Flash)
Click here to listen with your own player(launches your MP3 player)

URKK 132100Z 22005MPS 9000 -SHRA SCT026CB BKN049 02/00 Q1023 R23L/CLRD70 TEMPO 20009G14MPS 2000 TSRASN BKN005 BKN020CB RMK QFE764

URKK Flight Activity (Flightaware)

Listeners: 4 out of 1452 total

Krasnodar Approach: 129.600
Krasnodar Ground: 119.000
Krasnodar Radar: 121.300
Krasnodar Tower: 118.200

URMT Twr/App/Control (Archives)
Stavropol, Russia

Feed Status: UP
Listen in your browser - HTML5 player(in browser, HTML5)
Listen right in your browser(in browser, requires Flash)
Click here to listen with your own player(launches your MP3 player)

URMT 132100Z 25003MPS CAVOK M02/M03 Q1021 R25/120060 NOSIG RMK QFE727

URMT Flight Activity (Flightaware)

Listeners: 0 out of 1452 total

Stavropol Approach: 120.300
Stavropol Control: 118.250
Stavropol Tower: 120.900

URSS Gnd/Twr/App
Sochi, Russia

Feed Status: DOWN
Offline since: 2018-11-11 08:29:03 UTC

URSS 132100Z 03004MPS 9999 -SHRA BKN030CB OVC080 05/03 Q1024 R02/290055 R06/290055 NOSIG RMK R06/02002MPS MT OBSC QFE767

Sochi Approach: 118.300
Sochi Approach: 119.700
Sochi District (Small Aircraft): 118.500
Sochi Start: 121.200
Sochi Taxi: 119.000
Sochi Tower: 124.600

USDD Gnd/Twr/App/Control (Archives)
Salekhard, Russia

Feed Status: UP
Listen in your browser - HTML5 player(in browser, HTML5)
Listen right in your browser(in browser, requires Flash)
Click here to listen with your own player(launches your MP3 player)

USDD 150530Z 05007MPS 9999 -SHRA BKN009CB 09/07 Q1002 R04/290060 NOSIG RMK QFE746/0994

USDD Flight Activity (Flightaware)

Listeners: 0 out of 1452 total

Salekhard Control: 132.300
Salekhard Ground: 118.800
Salekhard Info: 125.200
Salekhard Krug: 120.800
Salekhard Tower: 118.600
Salekhard Transit: 131.700